<?xml version="1.0" encoding="UTF-8" standalone="no" ?>
<gpx xmlns="http://www.topografix.com/GPX/1/1" xmlns:xsi="http://www.w3.org/2001/XMLSchema-instance" xsi:schemaLocation="http://www.topografix.com/GPX/1/1 http://www.topografix.com/GPX/1/1/gpx.xsd" version="1.1" creator="VisuGPX - https://www.visugpx.com">
  <metadata>
    <name>Luz St Sauveur / Col de Spandelles</name>
    <desc><![CDATA[Moyenne 10.0 Km/h]]></desc>
  </metadata>
  <trk>
    <name><![CDATA[Luz St Sauveur / Col de Spandelles_1]]></name>
    <extensions>
      <line xmlns="http://www.topografix.com/GPX/gpx_style/0/2">
        <color>0000FF</color>
        <width>4</width>
      </line>
    </extensions>
    <trkseg>
      <trkpt lat="42.87181" lon="-0.00321">
        <ele>716.1</ele>
        <time>2024-08-26T22:00:00.000Z</time>
      </trkpt>
      <trkpt lat="42.87194" lon="-0.00328">
        <ele>715.4</ele>
        <time>2024-08-26T22:00:04.119Z</time>
      </trkpt>
      <trkpt lat="42.87217" lon="-0.00349">
        <ele>713.1</ele>
        <time>2024-08-26T22:00:12.274Z</time>
      </trkpt>
      <trkpt lat="42.87217" lon="-0.00378">
        <ele>711.5</ele>
        <time>2024-08-26T22:00:18.537Z</time>
      </trkpt>
      <trkpt lat="42.87219" lon="-0.00397">
        <ele>710.4</ele>
        <time>2024-08-26T22:00:22.683Z</time>
      </trkpt>
      <trkpt lat="42.87226" lon="-0.00436">
        <ele>707.6</ele>
        <time>2024-08-26T22:00:31.355Z</time>
      </trkpt>
      <trkpt lat="42.87237" lon="-0.00476">
        <ele>705.7</ele>
        <time>2024-08-26T22:00:40.582Z</time>
      </trkpt>
      <trkpt lat="42.87233" lon="-0.00483">
        <ele>705.2</ele>
        <time>2024-08-26T22:00:42.499Z</time>
        <extensions>
          <visugpx:TrkExtension xmlns:visugpx="https://www.visugpx.com/editgpx/">
            <visugpx:node>1</visugpx:node>
            </visugpx:TrkExtension>
        </extensions>
      </trkpt>
      <trkpt lat="42.87298" lon="-0.0038">
        <ele>709.1</ele>
        <time>2024-08-26T22:01:20.459Z</time>
      </trkpt>
      <trkpt lat="42.8733" lon="-0.00326">
        <ele>710.3</ele>
        <time>2024-08-26T22:01:38.910Z</time>
      </trkpt>
      <trkpt lat="42.87348" lon="-0.00326">
        <ele>709.7</ele>
        <time>2024-08-26T22:01:44.392Z</time>
      </trkpt>
      <trkpt lat="42.87421" lon="-0.00315">
        <ele>708.5</ele>
        <time>2024-08-26T22:02:07.926Z</time>
        <extensions>
          <visugpx:TrkExtension xmlns:visugpx="https://www.visugpx.com/editgpx/">
            <visugpx:node>2</visugpx:node>
            </visugpx:TrkExtension>
        </extensions>
      </trkpt>
      <trkpt lat="42.87427" lon="-0.00315">
        <ele>708.3</ele>
        <time>2024-08-26T22:02:09.754Z</time>
      </trkpt>
      <trkpt lat="42.87436" lon="-0.00318">
        <ele>707.9</ele>
        <time>2024-08-26T22:02:12.495Z</time>
      </trkpt>
      <trkpt lat="42.87448" lon="-0.0033">
        <ele>706.9</ele>
        <time>2024-08-26T22:02:16.880Z</time>
      </trkpt>
      <trkpt lat="42.87525" lon="-0.00445">
        <ele>698.1</ele>
        <time>2024-08-26T22:02:50.521Z</time>
      </trkpt>
      <trkpt lat="42.87742" lon="-0.00761">
        <ele>685.6</ele>
        <time>2024-08-26T22:04:25.476Z</time>
        <extensions>
          <visugpx:TrkExtension xmlns:visugpx="https://www.visugpx.com/editgpx/">
            <visugpx:node>3</visugpx:node>
            </visugpx:TrkExtension>
        </extensions>
      </trkpt>
      <trkpt lat="42.8799" lon="-0.01121">
        <ele>673.3</ele>
        <time>2024-08-26T22:06:15.551Z</time>
      </trkpt>
      <trkpt lat="42.88007" lon="-0.01145">
        <ele>671.8</ele>
        <time>2024-08-26T22:06:22.759Z</time>
      </trkpt>
      <trkpt lat="42.88022" lon="-0.01163">
        <ele>671.1</ele>
        <time>2024-08-26T22:06:28.812Z</time>
      </trkpt>
      <trkpt lat="42.88219" lon="-0.01316">
        <ele>662.3</ele>
        <time>2024-08-26T22:07:36.745Z</time>
      </trkpt>
      <trkpt lat="42.88498" lon="-0.01527">
        <ele>648.2</ele>
        <time>2024-08-26T22:09:10.849Z</time>
      </trkpt>
      <trkpt lat="42.88515" lon="-0.01542">
        <ele>647.5</ele>
        <time>2024-08-26T22:09:16.993Z</time>
        <extensions>
          <visugpx:TrkExtension xmlns:visugpx="https://www.visugpx.com/editgpx/">
            <visugpx:node>4</visugpx:node>
            </visugpx:TrkExtension>
        </extensions>
      </trkpt>
      <trkpt lat="42.88527" lon="-0.01557">
        <ele>646</ele>
        <time>2024-08-26T22:09:21.788Z</time>
      </trkpt>
      <trkpt lat="42.88532" lon="-0.01571">
        <ele>645.6</ele>
        <time>2024-08-26T22:09:25.246Z</time>
      </trkpt>
      <trkpt lat="42.88537" lon="-0.01569">
        <ele>646</ele>
        <time>2024-08-26T22:09:27.495Z</time>
      </trkpt>
      <trkpt lat="42.88546" lon="-0.0157">
        <ele>646.4</ele>
        <time>2024-08-26T22:09:30.994Z</time>
      </trkpt>
      <trkpt lat="42.88565" lon="-0.01585">
        <ele>645.6</ele>
        <time>2024-08-26T22:09:37.618Z</time>
      </trkpt>
      <trkpt lat="42.88578" lon="-0.01592">
        <ele>645.5</ele>
        <time>2024-08-26T22:09:42.223Z</time>
      </trkpt>
      <trkpt lat="42.88585" lon="-0.01593">
        <ele>645.7</ele>
        <time>2024-08-26T22:09:44.814Z</time>
      </trkpt>
      <trkpt lat="42.88612" lon="-0.01588">
        <ele>648.9</ele>
        <time>2024-08-26T22:09:58.360Z</time>
      </trkpt>
      <trkpt lat="42.88632" lon="-0.0159">
        <ele>650.8</ele>
        <time>2024-08-26T22:10:07.565Z</time>
      </trkpt>
      <trkpt lat="42.88643" lon="-0.01593">
        <ele>651.3</ele>
        <time>2024-08-26T22:10:11.915Z</time>
      </trkpt>
      <trkpt lat="42.88677" lon="-0.01607">
        <ele>652.4</ele>
        <time>2024-08-26T22:10:25.097Z</time>
      </trkpt>
      <trkpt lat="42.88696" lon="-0.01618">
        <ele>653.6</ele>
        <time>2024-08-26T22:10:33.466Z</time>
      </trkpt>
      <trkpt lat="42.88706" lon="-0.01626">
        <ele>653.7</ele>
        <time>2024-08-26T22:10:37.476Z</time>
      </trkpt>
      <trkpt lat="42.88737" lon="-0.01659">
        <ele>649.5</ele>
        <time>2024-08-26T22:10:49.062Z</time>
      </trkpt>
      <trkpt lat="42.88755" lon="-0.01672">
        <ele>648.9</ele>
        <time>2024-08-26T22:10:55.336Z</time>
      </trkpt>
      <trkpt lat="42.88795" lon="-0.01695">
        <ele>652.7</ele>
        <time>2024-08-26T22:11:14.771Z</time>
      </trkpt>
      <trkpt lat="42.88807" lon="-0.01705">
        <ele>654.4</ele>
        <time>2024-08-26T22:11:21.848Z</time>
      </trkpt>
      <trkpt lat="42.88817" lon="-0.01719">
        <ele>654.9</ele>
        <time>2024-08-26T22:11:27.232Z</time>
      </trkpt>
      <trkpt lat="42.8885" lon="-0.01778">
        <ele>650.1</ele>
        <time>2024-08-26T22:11:43.259Z</time>
      </trkpt>
      <trkpt lat="42.88902" lon="-0.01838">
        <ele>650.4</ele>
        <time>2024-08-26T22:12:06.506Z</time>
      </trkpt>
      <trkpt lat="42.88923" lon="-0.01857">
        <ele>649.7</ele>
        <time>2024-08-26T22:12:14.308Z</time>
      </trkpt>
      <trkpt lat="42.88956" lon="-0.0188">
        <ele>652.5</ele>
        <time>2024-08-26T22:12:30.235Z</time>
      </trkpt>
      <trkpt lat="42.89056" lon="-0.01939">
        <ele>656.1</ele>
        <time>2024-08-26T22:13:10.941Z</time>
      </trkpt>
      <trkpt lat="42.89107" lon="-0.01971">
        <ele>656.3</ele>
        <time>2024-08-26T22:13:30.055Z</time>
      </trkpt>
      <trkpt lat="42.89126" lon="-0.0198">
        <ele>659</ele>
        <time>2024-08-26T22:13:40.677Z</time>
      </trkpt>
      <trkpt lat="42.89159" lon="-0.01989">
        <ele>666.9</ele>
        <time>2024-08-26T22:14:06.843Z</time>
      </trkpt>
      <trkpt lat="42.89172" lon="-0.01996">
        <ele>668.7</ele>
        <time>2024-08-26T22:14:14.079Z</time>
      </trkpt>
      <trkpt lat="42.89178" lon="-0.02003">
        <ele>667.8</ele>
        <time>2024-08-26T22:14:16.405Z</time>
      </trkpt>
      <trkpt lat="42.89182" lon="-0.02011">
        <ele>666</ele>
        <time>2024-08-26T22:14:18.496Z</time>
      </trkpt>
      <trkpt lat="42.89199" lon="-0.02063">
        <ele>656.8</ele>
        <time>2024-08-26T22:14:30.791Z</time>
      </trkpt>
      <trkpt lat="42.89207" lon="-0.02075">
        <ele>655.2</ele>
        <time>2024-08-26T22:14:34.294Z</time>
      </trkpt>
      <trkpt lat="42.89212" lon="-0.02078">
        <ele>655.7</ele>
        <time>2024-08-26T22:14:36.773Z</time>
      </trkpt>
      <trkpt lat="42.89218" lon="-0.02079">
        <ele>657.1</ele>
        <time>2024-08-26T22:14:41.414Z</time>
      </trkpt>
      <trkpt lat="42.89263" lon="-0.02072">
        <ele>666.3</ele>
        <time>2024-08-26T22:15:12.458Z</time>
      </trkpt>
      <trkpt lat="42.89275" lon="-0.02073">
        <ele>667.2</ele>
        <time>2024-08-26T22:15:17.613Z</time>
      </trkpt>
      <trkpt lat="42.89302" lon="-0.02091">
        <ele>666.9</ele>
        <time>2024-08-26T22:15:27.429Z</time>
      </trkpt>
      <trkpt lat="42.89323" lon="-0.02102">
        <ele>668.5</ele>
        <time>2024-08-26T22:15:36.954Z</time>
      </trkpt>
      <trkpt lat="42.89326" lon="-0.02107">
        <ele>668.4</ele>
        <time>2024-08-26T22:15:38.450Z</time>
      </trkpt>
      <trkpt lat="42.89327" lon="-0.02113">
        <ele>667.9</ele>
        <time>2024-08-26T22:15:39.778Z</time>
      </trkpt>
      <trkpt lat="42.89319" lon="-0.02147">
        <ele>662.8</ele>
        <time>2024-08-26T22:15:47.488Z</time>
      </trkpt>
      <trkpt lat="42.8932" lon="-0.02163">
        <ele>660.6</ele>
        <time>2024-08-26T22:15:50.955Z</time>
      </trkpt>
      <trkpt lat="42.89323" lon="-0.02169">
        <ele>660.1</ele>
        <time>2024-08-26T22:15:52.523Z</time>
      </trkpt>
      <trkpt lat="42.89351" lon="-0.02186">
        <ele>661.3</ele>
        <time>2024-08-26T22:16:04.202Z</time>
      </trkpt>
      <trkpt lat="42.89378" lon="-0.02211">
        <ele>659.4</ele>
        <time>2024-08-26T22:16:13.816Z</time>
      </trkpt>
      <trkpt lat="42.8939" lon="-0.02219">
        <ele>658.4</ele>
        <time>2024-08-26T22:16:17.752Z</time>
      </trkpt>
      <trkpt lat="42.89412" lon="-0.0223">
        <ele>656.8</ele>
        <time>2024-08-26T22:16:24.656Z</time>
      </trkpt>
      <trkpt lat="42.89525" lon="-0.02275">
        <ele>655.4</ele>
        <time>2024-08-26T22:17:02.886Z</time>
      </trkpt>
      <trkpt lat="42.89589" lon="-0.02313">
        <ele>654.8</ele>
        <time>2024-08-26T22:17:25.781Z</time>
      </trkpt>
      <trkpt lat="42.89618" lon="-0.02327">
        <ele>660.9</ele>
        <time>2024-08-26T22:17:46.471Z</time>
      </trkpt>
      <trkpt lat="42.8964" lon="-0.02342">
        <ele>663.9</ele>
        <time>2024-08-26T22:17:58.897Z</time>
      </trkpt>
      <trkpt lat="42.89658" lon="-0.02359">
        <ele>663.8</ele>
        <time>2024-08-26T22:18:06.166Z</time>
      </trkpt>
      <trkpt lat="42.89696" lon="-0.02409">
        <ele>654.5</ele>
        <time>2024-08-26T22:18:21.720Z</time>
      </trkpt>
      <trkpt lat="42.89759" lon="-0.02459">
        <ele>660</ele>
        <time>2024-08-26T22:18:53.034Z</time>
      </trkpt>
      <trkpt lat="42.89775" lon="-0.02478">
        <ele>658.4</ele>
        <time>2024-08-26T22:18:59.284Z</time>
      </trkpt>
      <trkpt lat="42.89794" lon="-0.02505">
        <ele>654.4</ele>
        <time>2024-08-26T22:19:07.366Z</time>
      </trkpt>
      <trkpt lat="42.89814" lon="-0.02527">
        <ele>654.6</ele>
        <time>2024-08-26T22:19:16.228Z</time>
      </trkpt>
      <trkpt lat="42.89912" lon="-0.02607">
        <ele>660.4</ele>
        <time>2024-08-26T22:20:01.422Z</time>
      </trkpt>
      <trkpt lat="42.89932" lon="-0.02621">
        <ele>659.9</ele>
        <time>2024-08-26T22:20:08.498Z</time>
      </trkpt>
      <trkpt lat="42.89948" lon="-0.02627">
        <ele>660.9</ele>
        <time>2024-08-26T22:20:15.273Z</time>
      </trkpt>
      <trkpt lat="42.89962" lon="-0.02627">
        <ele>662.1</ele>
        <time>2024-08-26T22:20:21.503Z</time>
      </trkpt>
      <trkpt lat="42.89969" lon="-0.02624">
        <ele>664.2</ele>
        <time>2024-08-26T22:20:28.552Z</time>
      </trkpt>
      <trkpt lat="42.89993" lon="-0.02606">
        <ele>672.8</ele>
        <time>2024-08-26T22:20:58.105Z</time>
      </trkpt>
      <trkpt lat="42.90027" lon="-0.02585">
        <ele>682.2</ele>
        <time>2024-08-26T22:21:29.217Z</time>
      </trkpt>
      <trkpt lat="42.90036" lon="-0.02581">
        <ele>682.8</ele>
        <time>2024-08-26T22:21:33.122Z</time>
      </trkpt>
      <trkpt lat="42.90058" lon="-0.02576">
        <ele>681.5</ele>
        <time>2024-08-26T22:21:39.695Z</time>
      </trkpt>
      <trkpt lat="42.90077" lon="-0.02575">
        <ele>682.7</ele>
        <time>2024-08-26T22:21:47.533Z</time>
      </trkpt>
      <trkpt lat="42.90091" lon="-0.0257">
        <ele>689.8</ele>
        <time>2024-08-26T22:22:13.121Z</time>
      </trkpt>
      <trkpt lat="42.90102" lon="-0.0257">
        <ele>696.9</ele>
        <time>2024-08-26T22:22:32.571Z</time>
      </trkpt>
      <trkpt lat="42.90107" lon="-0.02573">
        <ele>699.1</ele>
        <time>2024-08-26T22:22:40.980Z</time>
      </trkpt>
      <trkpt lat="42.90111" lon="-0.02579">
        <ele>699.5</ele>
        <time>2024-08-26T22:22:43.465Z</time>
      </trkpt>
      <trkpt lat="42.90114" lon="-0.02593">
        <ele>698.6</ele>
        <time>2024-08-26T22:22:46.614Z</time>
      </trkpt>
      <trkpt lat="42.90113" lon="-0.02615">
        <ele>693.8</ele>
        <time>2024-08-26T22:22:51.372Z</time>
      </trkpt>
      <trkpt lat="42.90105" lon="-0.02647">
        <ele>685</ele>
        <time>2024-08-26T22:22:58.671Z</time>
      </trkpt>
      <trkpt lat="42.90106" lon="-0.02654">
        <ele>684.8</ele>
        <time>2024-08-26T22:23:00.239Z</time>
      </trkpt>
      <trkpt lat="42.90113" lon="-0.02664">
        <ele>687.1</ele>
        <time>2024-08-26T22:23:07.875Z</time>
      </trkpt>
      <trkpt lat="42.90159" lon="-0.02689">
        <ele>699.7</ele>
        <time>2024-08-26T22:23:49.594Z</time>
      </trkpt>
      <trkpt lat="42.90203" lon="-0.02716">
        <ele>708.2</ele>
        <time>2024-08-26T22:24:19.385Z</time>
      </trkpt>
      <trkpt lat="42.90306" lon="-0.02795">
        <ele>717.7</ele>
        <time>2024-08-26T22:25:11.010Z</time>
      </trkpt>
      <trkpt lat="42.90345" lon="-0.0282">
        <ele>726.3</ele>
        <time>2024-08-26T22:25:40.137Z</time>
      </trkpt>
      <trkpt lat="42.90379" lon="-0.02868">
        <ele>717.8</ele>
        <time>2024-08-26T22:25:54.550Z</time>
      </trkpt>
      <trkpt lat="42.90384" lon="-0.02872">
        <ele>718.3</ele>
        <time>2024-08-26T22:25:57.134Z</time>
      </trkpt>
      <trkpt lat="42.9039" lon="-0.02874">
        <ele>720.5</ele>
        <time>2024-08-26T22:26:05.067Z</time>
      </trkpt>
      <trkpt lat="42.90416" lon="-0.02878">
        <ele>729.8</ele>
        <time>2024-08-26T22:26:38.573Z</time>
      </trkpt>
      <trkpt lat="42.90431" lon="-0.02886">
        <ele>732</ele>
        <time>2024-08-26T22:26:47.152Z</time>
      </trkpt>
      <trkpt lat="42.90438" lon="-0.02892">
        <ele>732.3</ele>
        <time>2024-08-26T22:26:50.272Z</time>
      </trkpt>
      <trkpt lat="42.9048" lon="-0.02941">
        <ele>731.3</ele>
        <time>2024-08-26T22:27:07.882Z</time>
      </trkpt>
      <trkpt lat="42.90486" lon="-0.02944">
        <ele>732.6</ele>
        <time>2024-08-26T22:27:12.267Z</time>
      </trkpt>
      <trkpt lat="42.90489" lon="-0.02943">
        <ele>734.1</ele>
        <time>2024-08-26T22:27:17.727Z</time>
      </trkpt>
      <trkpt lat="42.90492" lon="-0.0294">
        <ele>736.3</ele>
        <time>2024-08-26T22:27:24.303Z</time>
      </trkpt>
      <trkpt lat="42.90493" lon="-0.02936">
        <ele>738</ele>
        <time>2024-08-26T22:27:29.777Z</time>
      </trkpt>
      <trkpt lat="42.90492" lon="-0.02931">
        <ele>739.3</ele>
        <time>2024-08-26T22:27:34.386Z</time>
      </trkpt>
      <trkpt lat="42.9049" lon="-0.02927">
        <ele>739.9</ele>
        <time>2024-08-26T22:27:36.519Z</time>
      </trkpt>
      <trkpt lat="42.90471" lon="-0.02907">
        <ele>740</ele>
        <time>2024-08-26T22:27:44.704Z</time>
      </trkpt>
      <trkpt lat="42.90446" lon="-0.02872">
        <ele>743.9</ele>
        <time>2024-08-26T22:28:01.975Z</time>
      </trkpt>
      <trkpt lat="42.90445" lon="-0.02865">
        <ele>746.5</ele>
        <time>2024-08-26T22:28:11.212Z</time>
      </trkpt>
      <trkpt lat="42.90447" lon="-0.0286">
        <ele>749.5</ele>
        <time>2024-08-26T22:28:18.591Z</time>
      </trkpt>
      <trkpt lat="42.90449" lon="-0.02859">
        <ele>750.7</ele>
        <time>2024-08-26T22:28:22.357Z</time>
      </trkpt>
      <trkpt lat="42.90456" lon="-0.02862">
        <ele>752.2</ele>
        <time>2024-08-26T22:28:27.412Z</time>
      </trkpt>
      <trkpt lat="42.90466" lon="-0.02877">
        <ele>749.7</ele>
        <time>2024-08-26T22:28:31.790Z</time>
      </trkpt>
      <trkpt lat="42.90475" lon="-0.02887">
        <ele>748.8</ele>
        <time>2024-08-26T22:28:35.210Z</time>
      </trkpt>
      <trkpt lat="42.90515" lon="-0.02921">
        <ele>749.9</ele>
        <time>2024-08-26T22:28:52.280Z</time>
      </trkpt>
      <trkpt lat="42.90529" lon="-0.02927">
        <ele>751.9</ele>
        <time>2024-08-26T22:29:00.088Z</time>
      </trkpt>
      <trkpt lat="42.90569" lon="-0.02934">
        <ele>758.8</ele>
        <time>2024-08-26T22:29:24.513Z</time>
      </trkpt>
      <trkpt lat="42.90625" lon="-0.02961">
        <ele>763.2</ele>
        <time>2024-08-26T22:29:49.913Z</time>
      </trkpt>
      <trkpt lat="42.90658" lon="-0.02988">
        <ele>761.9</ele>
        <time>2024-08-26T22:30:01.616Z</time>
      </trkpt>
      <trkpt lat="42.90665" lon="-0.02992">
        <ele>762</ele>
        <time>2024-08-26T22:30:04.278Z</time>
      </trkpt>
      <trkpt lat="42.90671" lon="-0.02994">
        <ele>762.4</ele>
        <time>2024-08-26T22:30:06.838Z</time>
      </trkpt>
      <trkpt lat="42.90685" lon="-0.02992">
        <ele>765.1</ele>
        <time>2024-08-26T22:30:16.070Z</time>
      </trkpt>
      <trkpt lat="42.90696" lon="-0.02993">
        <ele>766.5</ele>
        <time>2024-08-26T22:30:21.741Z</time>
      </trkpt>
      <trkpt lat="42.90702" lon="-0.02995">
        <ele>766.7</ele>
        <time>2024-08-26T22:30:24.044Z</time>
      </trkpt>
      <trkpt lat="42.90727" lon="-0.03011">
        <ele>766.2</ele>
        <time>2024-08-26T22:30:32.844Z</time>
      </trkpt>
      <trkpt lat="42.90731" lon="-0.03015">
        <ele>766.1</ele>
        <time>2024-08-26T22:30:34.415Z</time>
      </trkpt>
      <trkpt lat="42.90734" lon="-0.03027">
        <ele>764.1</ele>
        <time>2024-08-26T22:30:37.152Z</time>
      </trkpt>
      <trkpt lat="42.90728" lon="-0.0306">
        <ele>757.5</ele>
        <time>2024-08-26T22:30:44.491Z</time>
      </trkpt>
      <trkpt lat="42.90731" lon="-0.03078">
        <ele>756.9</ele>
        <time>2024-08-26T22:30:48.478Z</time>
      </trkpt>
      <trkpt lat="42.90741" lon="-0.03112">
        <ele>758.7</ele>
        <time>2024-08-26T22:30:59.688Z</time>
      </trkpt>
      <trkpt lat="42.90757" lon="-0.03146">
        <ele>759.9</ele>
        <time>2024-08-26T22:31:11.019Z</time>
      </trkpt>
      <trkpt lat="42.90769" lon="-0.03209">
        <ele>753.8</ele>
        <time>2024-08-26T22:31:25.070Z</time>
      </trkpt>
      <trkpt lat="42.90776" lon="-0.03228">
        <ele>752.5</ele>
        <time>2024-08-26T22:31:29.661Z</time>
      </trkpt>
      <trkpt lat="42.90791" lon="-0.03254">
        <ele>750.8</ele>
        <time>2024-08-26T22:31:36.805Z</time>
      </trkpt>
      <trkpt lat="42.90799" lon="-0.03264">
        <ele>750.1</ele>
        <time>2024-08-26T22:31:40.001Z</time>
      </trkpt>
      <trkpt lat="42.90812" lon="-0.03275">
        <ele>749.8</ele>
        <time>2024-08-26T22:31:44.854Z</time>
      </trkpt>
      <trkpt lat="42.90815" lon="-0.0328">
        <ele>749.2</ele>
        <time>2024-08-26T22:31:46.249Z</time>
      </trkpt>
      <trkpt lat="42.90816" lon="-0.03289">
        <ele>747.6</ele>
        <time>2024-08-26T22:31:48.214Z</time>
      </trkpt>
      <trkpt lat="42.90815" lon="-0.03294">
        <ele>746.4</ele>
        <time>2024-08-26T22:31:49.333Z</time>
      </trkpt>
      <trkpt lat="42.90812" lon="-0.03298">
        <ele>745</ele>
        <time>2024-08-26T22:31:50.568Z</time>
      </trkpt>
      <trkpt lat="42.90804" lon="-0.033">
        <ele>742.9</ele>
        <time>2024-08-26T22:31:52.965Z</time>
      </trkpt>
      <trkpt lat="42.90794" lon="-0.03296">
        <ele>741.6</ele>
        <time>2024-08-26T22:31:56.036Z</time>
      </trkpt>
      <trkpt lat="42.9075" lon="-0.03251">
        <ele>740.7</ele>
        <time>2024-08-26T22:32:13.651Z</time>
      </trkpt>
      <trkpt lat="42.90741" lon="-0.03244">
        <ele>739.7</ele>
        <time>2024-08-26T22:32:16.703Z</time>
      </trkpt>
      <trkpt lat="42.90724" lon="-0.03234">
        <ele>737</ele>
        <time>2024-08-26T22:32:22.158Z</time>
      </trkpt>
      <trkpt lat="42.90698" lon="-0.03224">
        <ele>729.9</ele>
        <time>2024-08-26T22:32:30.118Z</time>
      </trkpt>
      <trkpt lat="42.90687" lon="-0.03216">
        <ele>727.2</ele>
        <time>2024-08-26T22:32:33.791Z</time>
      </trkpt>
      <trkpt lat="42.90668" lon="-0.03192">
        <ele>724.7</ele>
        <time>2024-08-26T22:32:41.419Z</time>
      </trkpt>
      <trkpt lat="42.90655" lon="-0.03172">
        <ele>721.6</ele>
        <time>2024-08-26T22:32:47.191Z</time>
      </trkpt>
      <trkpt lat="42.9065" lon="-0.03155">
        <ele>722.2</ele>
        <time>2024-08-26T22:32:52.398Z</time>
      </trkpt>
      <trkpt lat="42.90648" lon="-0.03131">
        <ele>725.1</ele>
        <time>2024-08-26T22:33:02.826Z</time>
      </trkpt>
      <trkpt lat="42.90643" lon="-0.03123">
        <ele>724.9</ele>
        <time>2024-08-26T22:33:05.224Z</time>
      </trkpt>
      <trkpt lat="42.90638" lon="-0.03122">
        <ele>723.8</ele>
        <time>2024-08-26T22:33:06.714Z</time>
        <extensions>
          <visugpx:TrkExtension xmlns:visugpx="https://www.visugpx.com/editgpx/">
            <visugpx:node>5</visugpx:node>
            </visugpx:TrkExtension>
        </extensions>
      </trkpt>
      <trkpt lat="42.90635" lon="-0.03124">
        <ele>722.5</ele>
        <time>2024-08-26T22:33:07.697Z</time>
      </trkpt>
      <trkpt lat="42.90633" lon="-0.03128">
        <ele>721.1</ele>
        <time>2024-08-26T22:33:08.743Z</time>
      </trkpt>
      <trkpt lat="42.90632" lon="-0.0314">
        <ele>718.3</ele>
        <time>2024-08-26T22:33:11.350Z</time>
      </trkpt>
      <trkpt lat="42.90646" lon="-0.03187">
        <ele>715.5</ele>
        <time>2024-08-26T22:33:22.302Z</time>
      </trkpt>
      <trkpt lat="42.90661" lon="-0.03226">
        <ele>714</ele>
        <time>2024-08-26T22:33:31.810Z</time>
      </trkpt>
      <trkpt lat="42.90677" lon="-0.03256">
        <ele>712.8</ele>
        <time>2024-08-26T22:33:39.831Z</time>
      </trkpt>
      <trkpt lat="42.90718" lon="-0.03316">
        <ele>712.5</ele>
        <time>2024-08-26T22:33:59.765Z</time>
      </trkpt>
      <trkpt lat="42.90733" lon="-0.03346">
        <ele>709.3</ele>
        <time>2024-08-26T22:34:07.606Z</time>
      </trkpt>
      <trkpt lat="42.90749" lon="-0.03386">
        <ele>701.6</ele>
        <time>2024-08-26T22:34:17.444Z</time>
      </trkpt>
      <trkpt lat="42.90758" lon="-0.03404">
        <ele>696.7</ele>
        <time>2024-08-26T22:34:22.148Z</time>
      </trkpt>
      <trkpt lat="42.90763" lon="-0.03411">
        <ele>695.4</ele>
        <time>2024-08-26T22:34:24.258Z</time>
      </trkpt>
      <trkpt lat="42.90775" lon="-0.03422">
        <ele>694.5</ele>
        <time>2024-08-26T22:34:28.518Z</time>
      </trkpt>
      <trkpt lat="42.90805" lon="-0.0344">
        <ele>694.4</ele>
        <time>2024-08-26T22:34:39.451Z</time>
      </trkpt>
      <trkpt lat="42.90905" lon="-0.03525">
        <ele>675.1</ele>
        <time>2024-08-26T22:35:14.165Z</time>
      </trkpt>
      <trkpt lat="42.90944" lon="-0.03567">
        <ele>667</ele>
        <time>2024-08-26T22:35:28.804Z</time>
      </trkpt>
      <trkpt lat="42.90958" lon="-0.03573">
        <ele>668</ele>
        <time>2024-08-26T22:35:34.955Z</time>
      </trkpt>
      <trkpt lat="42.90989" lon="-0.03574">
        <ele>677.2</ele>
        <time>2024-08-26T22:36:06.079Z</time>
      </trkpt>
      <trkpt lat="42.91007" lon="-0.03578">
        <ele>678.6</ele>
        <time>2024-08-26T22:36:13.950Z</time>
      </trkpt>
      <trkpt lat="42.91014" lon="-0.03582">
        <ele>676.7</ele>
        <time>2024-08-26T22:36:16.186Z</time>
      </trkpt>
      <trkpt lat="42.91042" lon="-0.03607">
        <ele>662.5</ele>
        <time>2024-08-26T22:36:26.046Z</time>
      </trkpt>
      <trkpt lat="42.91106" lon="-0.03636">
        <ele>655.8</ele>
        <time>2024-08-26T22:36:45.918Z</time>
      </trkpt>
      <trkpt lat="42.91121" lon="-0.03648">
        <ele>650.4</ele>
        <time>2024-08-26T22:36:51.041Z</time>
      </trkpt>
      <trkpt lat="42.91136" lon="-0.03664">
        <ele>640.7</ele>
        <time>2024-08-26T22:36:56.650Z</time>
      </trkpt>
      <trkpt lat="42.91154" lon="-0.03679">
        <ele>632.5</ele>
        <time>2024-08-26T22:37:02.865Z</time>
      </trkpt>
      <trkpt lat="42.91212" lon="-0.0371">
        <ele>616.5</ele>
        <time>2024-08-26T22:37:21.220Z</time>
      </trkpt>
      <trkpt lat="42.9123" lon="-0.03718">
        <ele>612.7</ele>
        <time>2024-08-26T22:37:26.799Z</time>
      </trkpt>
      <trkpt lat="42.9124" lon="-0.0372">
        <ele>612</ele>
        <time>2024-08-26T22:37:29.777Z</time>
      </trkpt>
      <trkpt lat="42.91256" lon="-0.03719">
        <ele>613.8</ele>
        <time>2024-08-26T22:37:37.598Z</time>
      </trkpt>
      <trkpt lat="42.91296" lon="-0.03707">
        <ele>622.1</ele>
        <time>2024-08-26T22:38:05.618Z</time>
      </trkpt>
      <trkpt lat="42.91333" lon="-0.03702">
        <ele>620.3</ele>
        <time>2024-08-26T22:38:16.575Z</time>
      </trkpt>
      <trkpt lat="42.91381" lon="-0.03684">
        <ele>628.1</ele>
        <time>2024-08-26T22:38:45.132Z</time>
      </trkpt>
      <trkpt lat="42.91397" lon="-0.03685">
        <ele>626.1</ele>
        <time>2024-08-26T22:38:49.853Z</time>
      </trkpt>
      <trkpt lat="42.91405" lon="-0.03688">
        <ele>623.5</ele>
        <time>2024-08-26T22:38:52.297Z</time>
      </trkpt>
      <trkpt lat="42.91418" lon="-0.03697">
        <ele>616.7</ele>
        <time>2024-08-26T22:38:56.593Z</time>
      </trkpt>
      <trkpt lat="42.91431" lon="-0.03711">
        <ele>610.8</ele>
        <time>2024-08-26T22:39:01.472Z</time>
      </trkpt>
      <trkpt lat="42.91402" lon="-0.03698">
        <ele>614.6</ele>
        <time>2024-08-26T22:39:17.034Z</time>
      </trkpt>
      <trkpt lat="42.91391" lon="-0.03696">
        <ele>615.1</ele>
        <time>2024-08-26T22:39:21.345Z</time>
        <extensions>
          <visugpx:TrkExtension xmlns:visugpx="https://www.visugpx.com/editgpx/">
            <visugpx:node>6</visugpx:node>
            </visugpx:TrkExtension>
        </extensions>
      </trkpt>
      <trkpt lat="42.91402" lon="-0.03698">
        <ele>614.6</ele>
        <time>2024-08-26T22:39:24.615Z</time>
      </trkpt>
      <trkpt lat="42.91431" lon="-0.03711">
        <ele>610.8</ele>
        <time>2024-08-26T22:39:33.610Z</time>
      </trkpt>
      <trkpt lat="42.9153" lon="-0.03765">
        <ele>613.7</ele>
        <time>2024-08-26T22:40:12.706Z</time>
      </trkpt>
      <trkpt lat="42.91626" lon="-0.03814">
        <ele>621</ele>
        <time>2024-08-26T22:40:56.120Z</time>
      </trkpt>
      <trkpt lat="42.91638" lon="-0.03823">
        <ele>620.7</ele>
        <time>2024-08-26T22:41:00.434Z</time>
      </trkpt>
      <trkpt lat="42.91649" lon="-0.03835">
        <ele>617.5</ele>
        <time>2024-08-26T22:41:04.583Z</time>
      </trkpt>
      <trkpt lat="42.91729" lon="-0.03964">
        <ele>596.7</ele>
        <time>2024-08-26T22:41:41.065Z</time>
      </trkpt>
      <trkpt lat="42.91742" lon="-0.03979">
        <ele>594.5</ele>
        <time>2024-08-26T22:41:46.081Z</time>
      </trkpt>
      <trkpt lat="42.91752" lon="-0.03986">
        <ele>594.6</ele>
        <time>2024-08-26T22:41:49.971Z</time>
      </trkpt>
      <trkpt lat="42.91759" lon="-0.03988">
        <ele>595.7</ele>
        <time>2024-08-26T22:41:54.030Z</time>
      </trkpt>
      <trkpt lat="42.91797" lon="-0.03988">
        <ele>605.3</ele>
        <time>2024-08-26T22:42:25.807Z</time>
      </trkpt>
      <trkpt lat="42.91811" lon="-0.03992">
        <ele>607</ele>
        <time>2024-08-26T22:42:32.953Z</time>
      </trkpt>
      <trkpt lat="42.91826" lon="-0.04004">
        <ele>606</ele>
        <time>2024-08-26T22:42:38.076Z</time>
      </trkpt>
      <trkpt lat="42.91853" lon="-0.04034">
        <ele>598.6</ele>
        <time>2024-08-26T22:42:48.334Z</time>
      </trkpt>
      <trkpt lat="42.91861" lon="-0.04039">
        <ele>597.5</ele>
        <time>2024-08-26T22:42:50.927Z</time>
      </trkpt>
      <trkpt lat="42.91874" lon="-0.0404">
        <ele>598.1</ele>
        <time>2024-08-26T22:42:56.002Z</time>
      </trkpt>
      <trkpt lat="42.91881" lon="-0.04038">
        <ele>599.4</ele>
        <time>2024-08-26T22:43:00.514Z</time>
      </trkpt>
      <trkpt lat="42.91915" lon="-0.04021">
        <ele>606.9</ele>
        <time>2024-08-26T22:43:25.726Z</time>
      </trkpt>
      <trkpt lat="42.91924" lon="-0.04018">
        <ele>608</ele>
        <time>2024-08-26T22:43:30.353Z</time>
      </trkpt>
      <trkpt lat="42.91938" lon="-0.04019">
        <ele>607</ele>
        <time>2024-08-26T22:43:34.484Z</time>
      </trkpt>
      <trkpt lat="42.91962" lon="-0.04026">
        <ele>604.4</ele>
        <time>2024-08-26T22:43:41.717Z</time>
      </trkpt>
      <trkpt lat="42.91974" lon="-0.04027">
        <ele>604.8</ele>
        <time>2024-08-26T22:43:46.212Z</time>
      </trkpt>
      <trkpt lat="42.91997" lon="-0.04023">
        <ele>613</ele>
        <time>2024-08-26T22:44:15.689Z</time>
      </trkpt>
      <trkpt lat="42.92004" lon="-0.04024">
        <ele>616.4</ele>
        <time>2024-08-26T22:44:28.134Z</time>
      </trkpt>
      <trkpt lat="42.92017" lon="-0.0403">
        <ele>623</ele>
        <time>2024-08-26T22:44:52.398Z</time>
      </trkpt>
      <trkpt lat="42.9203" lon="-0.04045">
        <ele>622.8</ele>
        <time>2024-08-26T22:44:57.927Z</time>
      </trkpt>
      <trkpt lat="42.92048" lon="-0.0407">
        <ele>616.3</ele>
        <time>2024-08-26T22:45:05.493Z</time>
      </trkpt>
      <trkpt lat="42.92053" lon="-0.04075">
        <ele>615.1</ele>
        <time>2024-08-26T22:45:07.320Z</time>
      </trkpt>
      <trkpt lat="42.92069" lon="-0.04085">
        <ele>612.5</ele>
        <time>2024-08-26T22:45:12.505Z</time>
      </trkpt>
      <trkpt lat="42.92082" lon="-0.04091">
        <ele>610.8</ele>
        <time>2024-08-26T22:45:16.549Z</time>
      </trkpt>
      <trkpt lat="42.92099" lon="-0.04095">
        <ele>608.2</ele>
        <time>2024-08-26T22:45:21.633Z</time>
      </trkpt>
      <trkpt lat="42.92152" lon="-0.041">
        <ele>596.6</ele>
        <time>2024-08-26T22:45:37.289Z</time>
      </trkpt>
      <trkpt lat="42.92162" lon="-0.04099">
        <ele>595.8</ele>
        <time>2024-08-26T22:45:40.244Z</time>
      </trkpt>
      <trkpt lat="42.92171" lon="-0.04096">
        <ele>597.5</ele>
        <time>2024-08-26T22:45:46.127Z</time>
      </trkpt>
      <trkpt lat="42.92212" lon="-0.04078">
        <ele>605.4</ele>
        <time>2024-08-26T22:46:13.471Z</time>
      </trkpt>
      <trkpt lat="42.92254" lon="-0.04076">
        <ele>595.7</ele>
        <time>2024-08-26T22:46:25.856Z</time>
      </trkpt>
      <trkpt lat="42.92287" lon="-0.04069">
        <ele>595.2</ele>
        <time>2024-08-26T22:46:36.601Z</time>
      </trkpt>
      <trkpt lat="42.92301" lon="-0.04072">
        <ele>590.9</ele>
        <time>2024-08-26T22:46:40.777Z</time>
      </trkpt>
      <trkpt lat="42.92334" lon="-0.04084">
        <ele>580.6</ele>
        <time>2024-08-26T22:46:50.841Z</time>
      </trkpt>
      <trkpt lat="42.9235" lon="-0.04087">
        <ele>580.2</ele>
        <time>2024-08-26T22:46:55.887Z</time>
      </trkpt>
      <trkpt lat="42.9236" lon="-0.04087">
        <ele>581.4</ele>
        <time>2024-08-26T22:47:00.904Z</time>
      </trkpt>
      <trkpt lat="42.92393" lon="-0.0408">
        <ele>593.6</ele>
        <time>2024-08-26T22:47:45.408Z</time>
      </trkpt>
      <trkpt lat="42.92406" lon="-0.04085">
        <ele>594.4</ele>
        <time>2024-08-26T22:47:50.905Z</time>
      </trkpt>
      <trkpt lat="42.92412" lon="-0.0409">
        <ele>592.8</ele>
        <time>2024-08-26T22:47:52.976Z</time>
      </trkpt>
      <trkpt lat="42.9245" lon="-0.04135">
        <ele>579</ele>
        <time>2024-08-26T22:48:07.798Z</time>
      </trkpt>
      <trkpt lat="42.9249" lon="-0.04172">
        <ele>574.9</ele>
        <time>2024-08-26T22:48:22.036Z</time>
      </trkpt>
      <trkpt lat="42.92522" lon="-0.04197">
        <ele>569.7</ele>
        <time>2024-08-26T22:48:32.900Z</time>
      </trkpt>
      <trkpt lat="42.92544" lon="-0.04211">
        <ele>565.2</ele>
        <time>2024-08-26T22:48:40.053Z</time>
      </trkpt>
      <trkpt lat="42.92562" lon="-0.04213">
        <ele>564.7</ele>
        <time>2024-08-26T22:48:45.646Z</time>
      </trkpt>
      <trkpt lat="42.92571" lon="-0.04211">
        <ele>564.9</ele>
        <time>2024-08-26T22:48:48.935Z</time>
      </trkpt>
      <trkpt lat="42.92578" lon="-0.04207">
        <ele>566.3</ele>
        <time>2024-08-26T22:48:53.772Z</time>
      </trkpt>
      <trkpt lat="42.92586" lon="-0.04199">
        <ele>569.3</ele>
        <time>2024-08-26T22:49:03.971Z</time>
      </trkpt>
      <trkpt lat="42.92605" lon="-0.04173">
        <ele>582.1</ele>
        <time>2024-08-26T22:49:51.530Z</time>
      </trkpt>
      <trkpt lat="42.92612" lon="-0.04166">
        <ele>584.4</ele>
        <time>2024-08-26T22:49:59.167Z</time>
      </trkpt>
      <trkpt lat="42.92623" lon="-0.0416">
        <ele>587.3</ele>
        <time>2024-08-26T22:50:08.761Z</time>
      </trkpt>
      <trkpt lat="42.92631" lon="-0.04159">
        <ele>587</ele>
        <time>2024-08-26T22:50:11.179Z</time>
      </trkpt>
      <trkpt lat="42.92686" lon="-0.04164">
        <ele>584.1</ele>
        <time>2024-08-26T22:50:27.423Z</time>
      </trkpt>
      <trkpt lat="42.927" lon="-0.04166">
        <ele>584.2</ele>
        <time>2024-08-26T22:50:32.269Z</time>
      </trkpt>
      <trkpt lat="42.92722" lon="-0.04172">
        <ele>583.5</ele>
        <time>2024-08-26T22:50:39.146Z</time>
      </trkpt>
      <trkpt lat="42.92777" lon="-0.04191">
        <ele>577.2</ele>
        <time>2024-08-26T22:50:55.865Z</time>
      </trkpt>
      <trkpt lat="42.92831" lon="-0.04218">
        <ele>577.6</ele>
        <time>2024-08-26T22:51:15.653Z</time>
      </trkpt>
      <trkpt lat="42.92853" lon="-0.04233">
        <ele>574.6</ele>
        <time>2024-08-26T22:51:22.899Z</time>
      </trkpt>
      <trkpt lat="42.92882" lon="-0.04261">
        <ele>568.6</ele>
        <time>2024-08-26T22:51:33.365Z</time>
      </trkpt>
      <trkpt lat="42.92902" lon="-0.04285">
        <ele>564.4</ele>
        <time>2024-08-26T22:51:41.211Z</time>
      </trkpt>
      <trkpt lat="42.92939" lon="-0.04336">
        <ele>558.2</ele>
        <time>2024-08-26T22:51:56.703Z</time>
      </trkpt>
      <trkpt lat="42.92964" lon="-0.04367">
        <ele>559.6</ele>
        <time>2024-08-26T22:52:09.667Z</time>
      </trkpt>
      <trkpt lat="42.92973" lon="-0.04384">
        <ele>556.9</ele>
        <time>2024-08-26T22:52:14.194Z</time>
      </trkpt>
      <trkpt lat="42.92986" lon="-0.04433">
        <ele>545.3</ele>
        <time>2024-08-26T22:52:25.439Z</time>
      </trkpt>
      <trkpt lat="42.9301" lon="-0.04492">
        <ele>535.9</ele>
        <time>2024-08-26T22:52:40.002Z</time>
      </trkpt>
      <trkpt lat="42.93022" lon="-0.04517">
        <ele>534.4</ele>
        <time>2024-08-26T22:52:46.453Z</time>
      </trkpt>
      <trkpt lat="42.93029" lon="-0.04529">
        <ele>533.5</ele>
        <time>2024-08-26T22:52:49.763Z</time>
      </trkpt>
      <trkpt lat="42.93067" lon="-0.0458">
        <ele>535.4</ele>
        <time>2024-08-26T22:53:09.838Z</time>
      </trkpt>
      <trkpt lat="42.93079" lon="-0.04593">
        <ele>534.8</ele>
        <time>2024-08-26T22:53:14.424Z</time>
      </trkpt>
      <trkpt lat="42.93089" lon="-0.04601">
        <ele>534.5</ele>
        <time>2024-08-26T22:53:18.032Z</time>
      </trkpt>
      <trkpt lat="42.93106" lon="-0.0461">
        <ele>534.4</ele>
        <time>2024-08-26T22:53:24.071Z</time>
      </trkpt>
      <trkpt lat="42.93113" lon="-0.04611">
        <ele>535.3</ele>
        <time>2024-08-26T22:53:27.703Z</time>
      </trkpt>
      <trkpt lat="42.93165" lon="-0.04607">
        <ele>542.4</ele>
        <time>2024-08-26T22:53:55.418Z</time>
      </trkpt>
      <trkpt lat="42.93205" lon="-0.04615">
        <ele>544.9</ele>
        <time>2024-08-26T22:54:12.013Z</time>
      </trkpt>
      <trkpt lat="42.93218" lon="-0.0462">
        <ele>545.4</ele>
        <time>2024-08-26T22:54:17.125Z</time>
      </trkpt>
      <trkpt lat="42.93265" lon="-0.04649">
        <ele>537.8</ele>
        <time>2024-08-26T22:54:32.323Z</time>
      </trkpt>
      <trkpt lat="42.93307" lon="-0.04667">
        <ele>539.1</ele>
        <time>2024-08-26T22:54:48.587Z</time>
      </trkpt>
      <trkpt lat="42.93319" lon="-0.04674">
        <ele>544.4</ele>
        <time>2024-08-26T22:55:08.927Z</time>
      </trkpt>
      <trkpt lat="42.93378" lon="-0.0472">
        <ele>553</ele>
        <time>2024-08-26T22:55:43.825Z</time>
      </trkpt>
      <trkpt lat="42.93401" lon="-0.0474">
        <ele>553.5</ele>
        <time>2024-08-26T22:55:53.548Z</time>
      </trkpt>
      <trkpt lat="42.93426" lon="-0.04767">
        <ele>552.3</ele>
        <time>2024-08-26T22:56:03.133Z</time>
      </trkpt>
      <trkpt lat="42.93438" lon="-0.04785">
        <ele>550.2</ele>
        <time>2024-08-26T22:56:08.385Z</time>
      </trkpt>
      <trkpt lat="42.9346" lon="-0.04847">
        <ele>525.5</ele>
        <time>2024-08-26T22:56:23.250Z</time>
      </trkpt>
      <trkpt lat="42.9347" lon="-0.04861">
        <ele>521.3</ele>
        <time>2024-08-26T22:56:27.470Z</time>
      </trkpt>
      <trkpt lat="42.93476" lon="-0.04866">
        <ele>520.8</ele>
        <time>2024-08-26T22:56:29.541Z</time>
      </trkpt>
      <trkpt lat="42.93485" lon="-0.0487">
        <ele>521</ele>
        <time>2024-08-26T22:56:32.946Z</time>
      </trkpt>
      <trkpt lat="42.935" lon="-0.0487">
        <ele>524.2</ele>
        <time>2024-08-26T22:56:43.650Z</time>
      </trkpt>
      <trkpt lat="42.93586" lon="-0.04847">
        <ele>526.4</ele>
        <time>2024-08-26T22:57:15.575Z</time>
      </trkpt>
      <trkpt lat="42.93608" lon="-0.04846">
        <ele>525.3</ele>
        <time>2024-08-26T22:57:22.062Z</time>
      </trkpt>
      <trkpt lat="42.93627" lon="-0.04847">
        <ele>523.9</ele>
        <time>2024-08-26T22:57:27.665Z</time>
      </trkpt>
      <trkpt lat="42.93652" lon="-0.04851">
        <ele>523.3</ele>
        <time>2024-08-26T22:57:35.551Z</time>
      </trkpt>
      <trkpt lat="42.93664" lon="-0.04858">
        <ele>520.7</ele>
        <time>2024-08-26T22:57:39.397Z</time>
      </trkpt>
      <trkpt lat="42.93675" lon="-0.0487">
        <ele>518.9</ele>
        <time>2024-08-26T22:57:43.545Z</time>
        <extensions>
          <visugpx:TrkExtension xmlns:visugpx="https://www.visugpx.com/editgpx/">
            <visugpx:node>7</visugpx:node>
            </visugpx:TrkExtension>
        </extensions>
      </trkpt>
      <trkpt lat="42.93684" lon="-0.04885">
        <ele>516.2</ele>
        <time>2024-08-26T22:57:47.730Z</time>
      </trkpt>
      <trkpt lat="42.93694" lon="-0.04909">
        <ele>512.1</ele>
        <time>2024-08-26T22:57:53.687Z</time>
      </trkpt>
      <trkpt lat="42.93703" lon="-0.04926">
        <ele>511</ele>
        <time>2024-08-26T22:57:58.214Z</time>
      </trkpt>
      <trkpt lat="42.93722" lon="-0.04945">
        <ele>510.8</ele>
        <time>2024-08-26T22:58:05.941Z</time>
      </trkpt>
      <trkpt lat="42.93749" lon="-0.04962">
        <ele>512.6</ele>
        <time>2024-08-26T22:58:18.093Z</time>
      </trkpt>
      <trkpt lat="42.93794" lon="-0.04985">
        <ele>517.3</ele>
        <time>2024-08-26T22:58:40.384Z</time>
      </trkpt>
      <trkpt lat="42.9387" lon="-0.05027">
        <ele>517.6</ele>
        <time>2024-08-26T22:59:08.309Z</time>
      </trkpt>
      <trkpt lat="42.93883" lon="-0.05036">
        <ele>517.5</ele>
        <time>2024-08-26T22:59:13.116Z</time>
      </trkpt>
      <trkpt lat="42.93894" lon="-0.05048">
        <ele>516.5</ele>
        <time>2024-08-26T22:59:17.264Z</time>
      </trkpt>
      <trkpt lat="42.93907" lon="-0.05066">
        <ele>514.7</ele>
        <time>2024-08-26T22:59:22.719Z</time>
      </trkpt>
      <trkpt lat="42.93926" lon="-0.05096">
        <ele>513.5</ele>
        <time>2024-08-26T22:59:31.359Z</time>
      </trkpt>
      <trkpt lat="42.93931" lon="-0.05108">
        <ele>512.5</ele>
        <time>2024-08-26T22:59:34.338Z</time>
      </trkpt>
      <trkpt lat="42.9394" lon="-0.0514">
        <ele>509.4</ele>
        <time>2024-08-26T22:59:41.734Z</time>
      </trkpt>
      <trkpt lat="42.93952" lon="-0.05205">
        <ele>506.5</ele>
        <time>2024-08-26T22:59:56.196Z</time>
      </trkpt>
      <trkpt lat="42.93964" lon="-0.05248">
        <ele>503.8</ele>
        <time>2024-08-26T23:00:06.124Z</time>
      </trkpt>
      <trkpt lat="42.93983" lon="-0.05297">
        <ele>501.8</ele>
        <time>2024-08-26T23:00:18.086Z</time>
      </trkpt>
      <trkpt lat="42.93988" lon="-0.05306">
        <ele>501.1</ele>
        <time>2024-08-26T23:00:20.524Z</time>
      </trkpt>
      <trkpt lat="42.93999" lon="-0.05319">
        <ele>500.5</ele>
        <time>2024-08-26T23:00:24.852Z</time>
      </trkpt>
      <trkpt lat="42.94012" lon="-0.05327">
        <ele>499.9</ele>
        <time>2024-08-26T23:00:29.085Z</time>
      </trkpt>
      <trkpt lat="42.9402" lon="-0.0533">
        <ele>499.5</ele>
        <time>2024-08-26T23:00:31.529Z</time>
      </trkpt>
      <trkpt lat="42.94039" lon="-0.05329">
        <ele>499</ele>
        <time>2024-08-26T23:00:37.443Z</time>
      </trkpt>
      <trkpt lat="42.94047" lon="-0.05325">
        <ele>499.1</ele>
        <time>2024-08-26T23:00:40.419Z</time>
      </trkpt>
      <trkpt lat="42.94054" lon="-0.0532">
        <ele>499.5</ele>
        <time>2024-08-26T23:00:43.543Z</time>
      </trkpt>
      <trkpt lat="42.9409" lon="-0.05278">
        <ele>498.5</ele>
        <time>2024-08-26T23:00:58.497Z</time>
      </trkpt>
      <trkpt lat="42.94131" lon="-0.05235">
        <ele>496.8</ele>
        <time>2024-08-26T23:01:14.262Z</time>
      </trkpt>
      <trkpt lat="42.94149" lon="-0.05221">
        <ele>496.4</ele>
        <time>2024-08-26T23:01:20.840Z</time>
      </trkpt>
      <trkpt lat="42.94158" lon="-0.05215">
        <ele>497.8</ele>
        <time>2024-08-26T23:01:26.237Z</time>
      </trkpt>
      <trkpt lat="42.94174" lon="-0.05211">
        <ele>498.6</ele>
        <time>2024-08-26T23:01:32.641Z</time>
      </trkpt>
      <trkpt lat="42.94181" lon="-0.05211">
        <ele>499.2</ele>
        <time>2024-08-26T23:01:35.756Z</time>
      </trkpt>
      <trkpt lat="42.94199" lon="-0.05216">
        <ele>500.7</ele>
        <time>2024-08-26T23:01:43.817Z</time>
      </trkpt>
      <trkpt lat="42.94219" lon="-0.05231">
        <ele>501.1</ele>
        <time>2024-08-26T23:01:51.932Z</time>
      </trkpt>
      <trkpt lat="42.94269" lon="-0.05287">
        <ele>503.9</ele>
        <time>2024-08-26T23:02:16.905Z</time>
      </trkpt>
      <trkpt lat="42.94278" lon="-0.05295">
        <ele>502.7</ele>
        <time>2024-08-26T23:02:20.069Z</time>
      </trkpt>
      <trkpt lat="42.94372" lon="-0.05354">
        <ele>499.4</ele>
        <time>2024-08-26T23:02:51.711Z</time>
      </trkpt>
      <trkpt lat="42.94389" lon="-0.05367">
        <ele>498.6</ele>
        <time>2024-08-26T23:02:57.512Z</time>
      </trkpt>
      <trkpt lat="42.94406" lon="-0.05383">
        <ele>499.8</ele>
        <time>2024-08-26T23:03:05.883Z</time>
      </trkpt>
      <trkpt lat="42.94455" lon="-0.05436">
        <ele>499.6</ele>
        <time>2024-08-26T23:03:26.726Z</time>
      </trkpt>
      <trkpt lat="42.94526" lon="-0.05525">
        <ele>496.5</ele>
        <time>2024-08-26T23:03:56.177Z</time>
      </trkpt>
      <trkpt lat="42.94599" lon="-0.0561">
        <ele>495.2</ele>
        <time>2024-08-26T23:04:27.173Z</time>
      </trkpt>
      <trkpt lat="42.94649" lon="-0.05665">
        <ele>495</ele>
        <time>2024-08-26T23:04:48.587Z</time>
      </trkpt>
      <trkpt lat="42.94664" lon="-0.05685">
        <ele>493.6</ele>
        <time>2024-08-26T23:04:54.764Z</time>
      </trkpt>
      <trkpt lat="42.94681" lon="-0.05716">
        <ele>495.8</ele>
        <time>2024-08-26T23:05:07.035Z</time>
      </trkpt>
      <trkpt lat="42.94688" lon="-0.05734">
        <ele>494.3</ele>
        <time>2024-08-26T23:05:11.432Z</time>
      </trkpt>
      <trkpt lat="42.94702" lon="-0.05788">
        <ele>498.6</ele>
        <time>2024-08-26T23:05:31.210Z</time>
      </trkpt>
      <trkpt lat="42.94719" lon="-0.05876">
        <ele>490.9</ele>
        <time>2024-08-26T23:05:50.843Z</time>
      </trkpt>
      <trkpt lat="42.94745" lon="-0.05949">
        <ele>488.8</ele>
        <time>2024-08-26T23:06:08.836Z</time>
      </trkpt>
      <trkpt lat="42.94761" lon="-0.05984">
        <ele>490.1</ele>
        <time>2024-08-26T23:06:20.492Z</time>
      </trkpt>
      <trkpt lat="42.94809" lon="-0.06062">
        <ele>489.9</ele>
        <time>2024-08-26T23:06:45.408Z</time>
      </trkpt>
      <trkpt lat="42.94849" lon="-0.06138">
        <ele>494.1</ele>
        <time>2024-08-26T23:07:13.483Z</time>
      </trkpt>
      <trkpt lat="42.94893" lon="-0.0623">
        <ele>485.8</ele>
        <time>2024-08-26T23:07:37.189Z</time>
      </trkpt>
      <trkpt lat="42.94934" lon="-0.06301">
        <ele>484.9</ele>
        <time>2024-08-26T23:07:58.577Z</time>
      </trkpt>
      <trkpt lat="42.94955" lon="-0.06344">
        <ele>484.8</ele>
        <time>2024-08-26T23:08:11.217Z</time>
      </trkpt>
      <trkpt lat="42.94985" lon="-0.06423">
        <ele>485.8</ele>
        <time>2024-08-26T23:08:34.229Z</time>
      </trkpt>
      <trkpt lat="42.94993" lon="-0.06448">
        <ele>481.1</ele>
        <time>2024-08-26T23:08:40.114Z</time>
      </trkpt>
      <trkpt lat="42.95041" lon="-0.06676">
        <ele>486.3</ele>
        <time>2024-08-26T23:09:44.358Z</time>
      </trkpt>
      <trkpt lat="42.95052" lon="-0.06717">
        <ele>480.9</ele>
        <time>2024-08-26T23:09:53.777Z</time>
      </trkpt>
      <trkpt lat="42.95057" lon="-0.06729">
        <ele>479.8</ele>
        <time>2024-08-26T23:09:56.755Z</time>
      </trkpt>
      <trkpt lat="42.9507" lon="-0.06745">
        <ele>479.6</ele>
        <time>2024-08-26T23:10:02.446Z</time>
      </trkpt>
      <trkpt lat="42.95075" lon="-0.06736">
        <ele>479.9</ele>
        <time>2024-08-26T23:10:05.568Z</time>
      </trkpt>
      <trkpt lat="42.95082" lon="-0.0673">
        <ele>480</ele>
        <time>2024-08-26T23:10:08.458Z</time>
      </trkpt>
      <trkpt lat="42.95086" lon="-0.06729">
        <ele>479.8</ele>
        <time>2024-08-26T23:10:09.656Z</time>
      </trkpt>
      <trkpt lat="42.95095" lon="-0.0673">
        <ele>479.3</ele>
        <time>2024-08-26T23:10:12.317Z</time>
      </trkpt>
      <trkpt lat="42.95102" lon="-0.06736">
        <ele>479</ele>
        <time>2024-08-26T23:10:14.812Z</time>
      </trkpt>
      <trkpt lat="42.95104" lon="-0.0674">
        <ele>479</ele>
        <time>2024-08-26T23:10:16.006Z</time>
      </trkpt>
      <trkpt lat="42.95107" lon="-0.06751">
        <ele>479.1</ele>
        <time>2024-08-26T23:10:19.006Z</time>
      </trkpt>
      <trkpt lat="42.95106" lon="-0.06762">
        <ele>478.8</ele>
        <time>2024-08-26T23:10:21.451Z</time>
      </trkpt>
      <trkpt lat="42.95101" lon="-0.06772">
        <ele>478.6</ele>
        <time>2024-08-26T23:10:24.239Z</time>
      </trkpt>
      <trkpt lat="42.9509" lon="-0.06779">
        <ele>478.7</ele>
        <time>2024-08-26T23:10:28.431Z</time>
      </trkpt>
      <trkpt lat="42.951" lon="-0.06811">
        <ele>478.6</ele>
        <time>2024-08-26T23:10:36.906Z</time>
      </trkpt>
      <trkpt lat="42.95122" lon="-0.06849">
        <ele>477.9</ele>
        <time>2024-08-26T23:10:48.154Z</time>
      </trkpt>
      <trkpt lat="42.95137" lon="-0.06887">
        <ele>480.4</ele>
        <time>2024-08-26T23:11:01.901Z</time>
        <extensions>
          <visugpx:TrkExtension xmlns:visugpx="https://www.visugpx.com/editgpx/">
            <visugpx:node>8</visugpx:node>
            </visugpx:TrkExtension>
        </extensions>
      </trkpt>
      <trkpt lat="42.95159" lon="-0.0695">
        <ele>479.4</ele>
        <time>2024-08-26T23:11:18.114Z</time>
      </trkpt>
      <trkpt lat="42.9517" lon="-0.06965">
        <ele>480.8</ele>
        <time>2024-08-26T23:11:25.134Z</time>
      </trkpt>
      <trkpt lat="42.9518" lon="-0.06973">
        <ele>481.2</ele>
        <time>2024-08-26T23:11:29.484Z</time>
      </trkpt>
      <trkpt lat="42.95206" lon="-0.06984">
        <ele>482.8</ele>
        <time>2024-08-26T23:11:40.545Z</time>
      </trkpt>
      <trkpt lat="42.95244" lon="-0.06988">
        <ele>480.3</ele>
        <time>2024-08-26T23:11:51.776Z</time>
      </trkpt>
      <trkpt lat="42.95276" lon="-0.07001">
        <ele>476.8</ele>
        <time>2024-08-26T23:12:01.615Z</time>
      </trkpt>
      <trkpt lat="42.95317" lon="-0.07021">
        <ele>476.6</ele>
        <time>2024-08-26T23:12:16.072Z</time>
      </trkpt>
      <trkpt lat="42.95413" lon="-0.07082">
        <ele>479.2</ele>
        <time>2024-08-26T23:12:54.574Z</time>
      </trkpt>
      <trkpt lat="42.95456" lon="-0.07117">
        <ele>481</ele>
        <time>2024-08-26T23:13:13.452Z</time>
      </trkpt>
      <trkpt lat="42.95488" lon="-0.07149">
        <ele>481.3</ele>
        <time>2024-08-26T23:13:27.124Z</time>
      </trkpt>
      <trkpt lat="42.95502" lon="-0.07167">
        <ele>481</ele>
        <time>2024-08-26T23:13:33.298Z</time>
      </trkpt>
      <trkpt lat="42.95582" lon="-0.07283">
        <ele>484</ele>
        <time>2024-08-26T23:14:15.877Z</time>
      </trkpt>
      <trkpt lat="42.9564" lon="-0.07374">
        <ele>487.4</ele>
        <time>2024-08-26T23:14:49.460Z</time>
      </trkpt>
      <trkpt lat="42.9566" lon="-0.07411">
        <ele>488.9</ele>
        <time>2024-08-26T23:15:02.516Z</time>
      </trkpt>
      <trkpt lat="42.95669" lon="-0.07439">
        <ele>490.7</ele>
        <time>2024-08-26T23:15:12.296Z</time>
      </trkpt>
      <trkpt lat="42.95677" lon="-0.07475">
        <ele>493.1</ele>
        <time>2024-08-26T23:15:24.609Z</time>
      </trkpt>
      <trkpt lat="42.95685" lon="-0.07494">
        <ele>493.6</ele>
        <time>2024-08-26T23:15:30.567Z</time>
      </trkpt>
      <trkpt lat="42.95684" lon="-0.07496">
        <ele>493.8</ele>
        <time>2024-08-26T23:15:31.434Z</time>
      </trkpt>
      <trkpt lat="42.9568" lon="-0.07497">
        <ele>494.3</ele>
        <time>2024-08-26T23:15:33.496Z</time>
      </trkpt>
      <trkpt lat="42.95658" lon="-0.07493">
        <ele>497.1</ele>
        <time>2024-08-26T23:15:44.880Z</time>
        <extensions>
          <visugpx:TrkExtension xmlns:visugpx="https://www.visugpx.com/editgpx/">
            <visugpx:node>9</visugpx:node>
            </visugpx:TrkExtension>
        </extensions>
      </trkpt>
      <trkpt lat="42.9568" lon="-0.07497">
        <ele>494.3</ele>
        <time>2024-08-26T23:15:51.420Z</time>
      </trkpt>
      <trkpt lat="42.95684" lon="-0.07496">
        <ele>493.8</ele>
        <time>2024-08-26T23:15:52.618Z</time>
      </trkpt>
      <trkpt lat="42.95685" lon="-0.07494">
        <ele>493.6</ele>
        <time>2024-08-26T23:15:53.141Z</time>
      </trkpt>
      <trkpt lat="42.95696" lon="-0.07505">
        <ele>492.6</ele>
        <time>2024-08-26T23:15:57.158Z</time>
      </trkpt>
      <trkpt lat="42.95707" lon="-0.0751">
        <ele>490</ele>
        <time>2024-08-26T23:16:00.574Z</time>
      </trkpt>
      <trkpt lat="42.95723" lon="-0.07512">
        <ele>486.5</ele>
        <time>2024-08-26T23:16:05.309Z</time>
      </trkpt>
      <trkpt lat="42.95739" lon="-0.07511">
        <ele>488.7</ele>
        <time>2024-08-26T23:16:13.864Z</time>
      </trkpt>
      <trkpt lat="42.9578" lon="-0.07497">
        <ele>489.8</ele>
        <time>2024-08-26T23:16:29.305Z</time>
      </trkpt>
      <trkpt lat="42.95782" lon="-0.07489">
        <ele>489.3</ele>
        <time>2024-08-26T23:16:31.129Z</time>
      </trkpt>
      <trkpt lat="42.95787" lon="-0.07486">
        <ele>489.2</ele>
        <time>2024-08-26T23:16:32.868Z</time>
      </trkpt>
      <trkpt lat="42.95791" lon="-0.07487">
        <ele>489.3</ele>
        <time>2024-08-26T23:16:34.347Z</time>
      </trkpt>
      <trkpt lat="42.95794" lon="-0.07493">
        <ele>489.6</ele>
        <time>2024-08-26T23:16:36.491Z</time>
      </trkpt>
      <trkpt lat="42.95801" lon="-0.07491">
        <ele>489.6</ele>
        <time>2024-08-26T23:16:38.900Z</time>
      </trkpt>
      <trkpt lat="42.95815" lon="-0.07485">
        <ele>489</ele>
        <time>2024-08-26T23:16:43.270Z</time>
      </trkpt>
      <trkpt lat="42.95862" lon="-0.07459">
        <ele>486.5</ele>
        <time>2024-08-26T23:16:58.213Z</time>
      </trkpt>
      <trkpt lat="42.95884" lon="-0.07454">
        <ele>486.1</ele>
        <time>2024-08-26T23:17:05.325Z</time>
      </trkpt>
      <trkpt lat="42.95926" lon="-0.07448">
        <ele>484.3</ele>
        <time>2024-08-26T23:17:17.841Z</time>
      </trkpt>
      <trkpt lat="42.96081" lon="-0.07448">
        <ele>477.1</ele>
        <time>2024-08-26T23:18:03.519Z</time>
      </trkpt>
      <trkpt lat="42.96215" lon="-0.07451">
        <ele>473.5</ele>
        <time>2024-08-26T23:18:45.130Z</time>
      </trkpt>
      <trkpt lat="42.96317" lon="-0.0745">
        <ele>469.8</ele>
        <time>2024-08-26T23:19:15.930Z</time>
      </trkpt>
      <trkpt lat="42.96338" lon="-0.07448">
        <ele>469</ele>
        <time>2024-08-26T23:19:22.255Z</time>
      </trkpt>
      <trkpt lat="42.96546" lon="-0.07389">
        <ele>462.3</ele>
        <time>2024-08-26T23:20:27.303Z</time>
      </trkpt>
      <trkpt lat="42.96573" lon="-0.0738">
        <ele>462</ele>
        <time>2024-08-26T23:20:36.359Z</time>
      </trkpt>
      <trkpt lat="42.96587" lon="-0.07371">
        <ele>461.9</ele>
        <time>2024-08-26T23:20:41.468Z</time>
      </trkpt>
      <trkpt lat="42.96601" lon="-0.07357">
        <ele>461.3</ele>
        <time>2024-08-26T23:20:46.732Z</time>
      </trkpt>
      <trkpt lat="42.96598" lon="-0.07346">
        <ele>461.2</ele>
        <time>2024-08-26T23:20:49.524Z</time>
      </trkpt>
      <trkpt lat="42.96599" lon="-0.07336">
        <ele>460.9</ele>
        <time>2024-08-26T23:20:51.726Z</time>
      </trkpt>
      <trkpt lat="42.96603" lon="-0.07328">
        <ele>460.5</ele>
        <time>2024-08-26T23:20:53.816Z</time>
      </trkpt>
      <trkpt lat="42.96611" lon="-0.07324">
        <ele>460</ele>
        <time>2024-08-26T23:20:56.326Z</time>
      </trkpt>
      <trkpt lat="42.96616" lon="-0.07325">
        <ele>459.9</ele>
        <time>2024-08-26T23:20:57.928Z</time>
      </trkpt>
      <trkpt lat="42.96622" lon="-0.0733">
        <ele>459.7</ele>
        <time>2024-08-26T23:21:00.100Z</time>
      </trkpt>
      <trkpt lat="42.96626" lon="-0.07337">
        <ele>459.6</ele>
        <time>2024-08-26T23:21:02.189Z</time>
      </trkpt>
      <trkpt lat="42.96627" lon="-0.07347">
        <ele>459.9</ele>
        <time>2024-08-26T23:21:05.016Z</time>
      </trkpt>
      <trkpt lat="42.96643" lon="-0.07355">
        <ele>459.7</ele>
        <time>2024-08-26T23:21:10.552Z</time>
      </trkpt>
      <trkpt lat="42.96675" lon="-0.0736">
        <ele>458.7</ele>
        <time>2024-08-26T23:21:20.429Z</time>
      </trkpt>
      <trkpt lat="42.96746" lon="-0.07378">
        <ele>457.1</ele>
        <time>2024-08-26T23:21:43.167Z</time>
      </trkpt>
      <trkpt lat="42.96826" lon="-0.07402">
        <ele>455.6</ele>
        <time>2024-08-26T23:22:09.257Z</time>
      </trkpt>
      <trkpt lat="42.97106" lon="-0.0748">
        <ele>448.6</ele>
        <time>2024-08-26T23:23:38.609Z</time>
      </trkpt>
      <trkpt lat="42.97127" lon="-0.07487">
        <ele>448.2</ele>
        <time>2024-08-26T23:23:45.491Z</time>
      </trkpt>
      <trkpt lat="42.97213" lon="-0.07526">
        <ele>445.1</ele>
        <time>2024-08-26T23:24:13.018Z</time>
      </trkpt>
      <trkpt lat="42.97347" lon="-0.07591">
        <ele>443.5</ele>
        <time>2024-08-26T23:24:59.287Z</time>
      </trkpt>
      <trkpt lat="42.97362" lon="-0.076">
        <ele>443.6</ele>
        <time>2024-08-26T23:25:04.910Z</time>
      </trkpt>
      <trkpt lat="42.97387" lon="-0.0762">
        <ele>443</ele>
        <time>2024-08-26T23:25:14.071Z</time>
      </trkpt>
      <trkpt lat="42.97396" lon="-0.07541">
        <ele>443</ele>
        <time>2024-08-26T23:25:33.772Z</time>
      </trkpt>
      <trkpt lat="42.97313" lon="-0.07517">
        <ele>444.2</ele>
        <time>2024-08-26T23:26:03.628Z</time>
        <extensions>
          <visugpx:TrkExtension xmlns:visugpx="https://www.visugpx.com/editgpx/">
            <visugpx:node>10</visugpx:node>
            </visugpx:TrkExtension>
        </extensions>
      </trkpt>
      <trkpt lat="42.97396" lon="-0.07541">
        <ele>443</ele>
        <time>2024-08-26T23:26:30.994Z</time>
      </trkpt>
      <trkpt lat="42.97387" lon="-0.0762">
        <ele>443</ele>
        <time>2024-08-26T23:26:50.696Z</time>
      </trkpt>
      <trkpt lat="42.97414" lon="-0.07651">
        <ele>442.6</ele>
        <time>2024-08-26T23:27:02.167Z</time>
      </trkpt>
      <trkpt lat="42.97437" lon="-0.07683">
        <ele>442</ele>
        <time>2024-08-26T23:27:12.623Z</time>
      </trkpt>
      <trkpt lat="42.97457" lon="-0.07723">
        <ele>442</ele>
        <time>2024-08-26T23:27:24.561Z</time>
      </trkpt>
      <trkpt lat="42.975" lon="-0.0783">
        <ele>441</ele>
        <time>2024-08-26T23:27:53.631Z</time>
      </trkpt>
      <trkpt lat="42.97523" lon="-0.07879">
        <ele>440.7</ele>
        <time>2024-08-26T23:28:07.671Z</time>
      </trkpt>
      <trkpt lat="42.97542" lon="-0.07914">
        <ele>440.5</ele>
        <time>2024-08-26T23:28:18.205Z</time>
      </trkpt>
      <trkpt lat="42.97555" lon="-0.07934">
        <ele>440.6</ele>
        <time>2024-08-26T23:28:24.902Z</time>
      </trkpt>
      <trkpt lat="42.97583" lon="-0.07967">
        <ele>440</ele>
        <time>2024-08-26T23:28:36.754Z</time>
      </trkpt>
      <trkpt lat="42.97667" lon="-0.08052">
        <ele>439</ele>
        <time>2024-08-26T23:29:10.938Z</time>
      </trkpt>
      <trkpt lat="42.97712" lon="-0.08094">
        <ele>438.2</ele>
        <time>2024-08-26T23:29:28.487Z</time>
      </trkpt>
      <trkpt lat="42.97772" lon="-0.08142">
        <ele>437.9</ele>
        <time>2024-08-26T23:29:51.593Z</time>
      </trkpt>
      <trkpt lat="42.9799" lon="-0.08323">
        <ele>436</ele>
        <time>2024-08-26T23:31:15.560Z</time>
      </trkpt>
      <trkpt lat="42.98313" lon="-0.08639">
        <ele>433</ele>
        <time>2024-08-26T23:33:26.276Z</time>
      </trkpt>
      <trkpt lat="42.98362" lon="-0.08686">
        <ele>432.7</ele>
        <time>2024-08-26T23:33:46.129Z</time>
      </trkpt>
      <trkpt lat="42.98398" lon="-0.08718">
        <ele>432</ele>
        <time>2024-08-26T23:33:59.891Z</time>
      </trkpt>
      <trkpt lat="42.98437" lon="-0.08744">
        <ele>432</ele>
        <time>2024-08-26T23:34:14.505Z</time>
      </trkpt>
      <trkpt lat="42.98469" lon="-0.08762">
        <ele>432</ele>
        <time>2024-08-26T23:34:26.159Z</time>
      </trkpt>
      <trkpt lat="42.98616" lon="-0.08833">
        <ele>430.8</ele>
        <time>2024-08-26T23:35:17.444Z</time>
      </trkpt>
      <trkpt lat="42.98635" lon="-0.08841">
        <ele>430.1</ele>
        <time>2024-08-26T23:35:23.466Z</time>
      </trkpt>
      <trkpt lat="42.98672" lon="-0.08853">
        <ele>430</ele>
        <time>2024-08-26T23:35:36.170Z</time>
      </trkpt>
      <trkpt lat="42.98774" lon="-0.08877">
        <ele>430</ele>
        <time>2024-08-26T23:36:11.028Z</time>
      </trkpt>
      <trkpt lat="42.98811" lon="-0.08888">
        <ele>430</ele>
        <time>2024-08-26T23:36:23.781Z</time>
      </trkpt>
      <trkpt lat="42.98834" lon="-0.08897">
        <ele>430</ele>
        <time>2024-08-26T23:36:31.838Z</time>
      </trkpt>
      <trkpt lat="42.98883" lon="-0.08919">
        <ele>430.1</ele>
        <time>2024-08-26T23:36:49.312Z</time>
      </trkpt>
      <trkpt lat="42.98933" lon="-0.08955">
        <ele>431.2</ele>
        <time>2024-08-26T23:37:09.535Z</time>
      </trkpt>
      <trkpt lat="42.98973" lon="-0.08971">
        <ele>432</ele>
        <time>2024-08-26T23:37:24.436Z</time>
      </trkpt>
      <trkpt lat="42.99102" lon="-0.09012">
        <ele>428.7</ele>
        <time>2024-08-26T23:38:05.797Z</time>
      </trkpt>
      <trkpt lat="42.99158" lon="-0.09035">
        <ele>428</ele>
        <time>2024-08-26T23:38:24.783Z</time>
      </trkpt>
      <trkpt lat="42.99344" lon="-0.09123">
        <ele>433.1</ele>
        <time>2024-08-26T23:39:36.669Z</time>
      </trkpt>
      <trkpt lat="42.99411" lon="-0.09162">
        <ele>434.2</ele>
        <time>2024-08-26T23:40:02.373Z</time>
      </trkpt>
      <trkpt lat="42.9943" lon="-0.0917">
        <ele>434.2</ele>
        <time>2024-08-26T23:40:09.069Z</time>
      </trkpt>
      <trkpt lat="42.99437" lon="-0.09172">
        <ele>434.2</ele>
        <time>2024-08-26T23:40:11.477Z</time>
      </trkpt>
      <trkpt lat="42.9947" lon="-0.09173">
        <ele>431.9</ele>
        <time>2024-08-26T23:40:21.204Z</time>
      </trkpt>
      <trkpt lat="42.99504" lon="-0.09172">
        <ele>431.5</ele>
        <time>2024-08-26T23:40:32.254Z</time>
      </trkpt>
      <trkpt lat="42.99535" lon="-0.09178">
        <ele>432</ele>
        <time>2024-08-26T23:40:43.335Z</time>
      </trkpt>
      <trkpt lat="42.99595" lon="-0.09199">
        <ele>432.9</ele>
        <time>2024-08-26T23:41:05.158Z</time>
      </trkpt>
      <trkpt lat="42.99629" lon="-0.09201">
        <ele>434</ele>
        <time>2024-08-26T23:41:17.844Z</time>
      </trkpt>
      <trkpt lat="42.99646" lon="-0.09206">
        <ele>434.3</ele>
        <time>2024-08-26T23:41:24.024Z</time>
      </trkpt>
      <trkpt lat="42.99661" lon="-0.09216">
        <ele>434.8</ele>
        <time>2024-08-26T23:41:30.198Z</time>
      </trkpt>
      <trkpt lat="42.9967" lon="-0.09224">
        <ele>435</ele>
        <time>2024-08-26T23:41:34.029Z</time>
      </trkpt>
      <trkpt lat="42.9973" lon="-0.09312">
        <ele>438.1</ele>
        <time>2024-08-26T23:42:07.139Z</time>
        <extensions>
          <visugpx:TrkExtension xmlns:visugpx="https://www.visugpx.com/editgpx/">
            <visugpx:node>11</visugpx:node>
            </visugpx:TrkExtension>
        </extensions>
      </trkpt>
      <trkpt lat="42.99766" lon="-0.09366">
        <ele>439.9</ele>
        <time>2024-08-26T23:42:27.148Z</time>
      </trkpt>
      <trkpt lat="42.99804" lon="-0.09428">
        <ele>444.9</ele>
        <time>2024-08-26T23:42:53.364Z</time>
      </trkpt>
      <trkpt lat="42.99957" lon="-0.09653">
        <ele>446</ele>
        <time>2024-08-26T23:44:10.193Z</time>
      </trkpt>
      <trkpt lat="43.00085" lon="-0.09847">
        <ele>448.5</ele>
        <time>2024-08-26T23:45:17.218Z</time>
      </trkpt>
      <trkpt lat="43.001" lon="-0.09868">
        <ele>448.6</ele>
        <time>2024-08-26T23:45:24.553Z</time>
      </trkpt>
      <trkpt lat="43.00143" lon="-0.0992">
        <ele>449.9</ele>
        <time>2024-08-26T23:45:45.302Z</time>
      </trkpt>
      <trkpt lat="43.00146" lon="-0.09916">
        <ele>449.7</ele>
        <time>2024-08-26T23:45:46.537Z</time>
      </trkpt>
      <trkpt lat="43.0015" lon="-0.09914">
        <ele>449.5</ele>
        <time>2024-08-26T23:45:47.792Z</time>
      </trkpt>
      <trkpt lat="43.00158" lon="-0.09915">
        <ele>449.3</ele>
        <time>2024-08-26T23:45:50.301Z</time>
      </trkpt>
      <trkpt lat="43.00161" lon="-0.09918">
        <ele>449.2</ele>
        <time>2024-08-26T23:45:51.455Z</time>
      </trkpt>
      <trkpt lat="43.00164" lon="-0.09928">
        <ele>449.1</ele>
        <time>2024-08-26T23:45:54.017Z</time>
      </trkpt>
      <trkpt lat="43.00163" lon="-0.09934">
        <ele>449.1</ele>
        <time>2024-08-26T23:45:55.532Z</time>
      </trkpt>
      <trkpt lat="43.00161" lon="-0.09938">
        <ele>449.2</ele>
        <time>2024-08-26T23:45:56.836Z</time>
      </trkpt>
      <trkpt lat="43.00157" lon="-0.09941">
        <ele>449.3</ele>
        <time>2024-08-26T23:45:58.481Z</time>
      </trkpt>
      <trkpt lat="43.00162" lon="-0.09957">
        <ele>449.6</ele>
        <time>2024-08-26T23:46:03.095Z</time>
      </trkpt>
      <trkpt lat="43.00217" lon="-0.10058">
        <ele>449.9</ele>
        <time>2024-08-26T23:46:34.424Z</time>
      </trkpt>
      <trkpt lat="43.00263" lon="-0.10151">
        <ele>450.4</ele>
        <time>2024-08-26T23:47:02.603Z</time>
      </trkpt>
      <trkpt lat="43.00273" lon="-0.10164">
        <ele>450.9</ele>
        <time>2024-08-26T23:47:07.812Z</time>
        <extensions>
          <visugpx:TrkExtension xmlns:visugpx="https://www.visugpx.com/editgpx/">
            <visugpx:node>12</visugpx:node>
            </visugpx:TrkExtension>
        </extensions>
      </trkpt>
      <trkpt lat="43.00284" lon="-0.1017">
        <ele>451.4</ele>
        <time>2024-08-26T23:47:12.370Z</time>
      </trkpt>
      <trkpt lat="43.00295" lon="-0.10171">
        <ele>451.9</ele>
        <time>2024-08-26T23:47:16.656Z</time>
      </trkpt>
      <trkpt lat="43.0031" lon="-0.10168">
        <ele>452.4</ele>
        <time>2024-08-26T23:47:22.320Z</time>
      </trkpt>
      <trkpt lat="43.00329" lon="-0.10161">
        <ele>453.1</ele>
        <time>2024-08-26T23:47:29.732Z</time>
      </trkpt>
      <trkpt lat="43.00496" lon="-0.10079">
        <ele>461.7</ele>
        <time>2024-08-26T23:48:39.428Z</time>
      </trkpt>
      <trkpt lat="43.00558" lon="-0.10047">
        <ele>460.3</ele>
        <time>2024-08-26T23:49:00.360Z</time>
      </trkpt>
      <trkpt lat="43.00573" lon="-0.10041">
        <ele>459.7</ele>
        <time>2024-08-26T23:49:05.050Z</time>
        <extensions>
          <visugpx:TrkExtension xmlns:visugpx="https://www.visugpx.com/editgpx/">
            <visugpx:node>13</visugpx:node>
            </visugpx:TrkExtension>
        </extensions>
      </trkpt>
      <trkpt lat="43.00633" lon="-0.10024">
        <ele>457.9</ele>
        <time>2024-08-26T23:49:23.933Z</time>
      </trkpt>
      <trkpt lat="43.00644" lon="-0.10094">
        <ele>459</ele>
        <time>2024-08-26T23:49:42.761Z</time>
      </trkpt>
      <trkpt lat="43.00679" lon="-0.1011">
        <ele>459</ele>
        <time>2024-08-26T23:49:55.190Z</time>
      </trkpt>
      <trkpt lat="43.00703" lon="-0.10117">
        <ele>458.8</ele>
        <time>2024-08-26T23:50:03.251Z</time>
      </trkpt>
      <trkpt lat="43.00707" lon="-0.10123">
        <ele>458.7</ele>
        <time>2024-08-26T23:50:05.151Z</time>
      </trkpt>
      <trkpt lat="43.00708" lon="-0.10132">
        <ele>458.9</ele>
        <time>2024-08-26T23:50:07.615Z</time>
      </trkpt>
      <trkpt lat="43.007" lon="-0.10127">
        <ele>458.9</ele>
        <time>2024-08-26T23:50:10.577Z</time>
      </trkpt>
      <trkpt lat="43.00693" lon="-0.10127">
        <ele>459</ele>
        <time>2024-08-26T23:50:13.042Z</time>
        <extensions>
          <visugpx:TrkExtension xmlns:visugpx="https://www.visugpx.com/editgpx/">
            <visugpx:node>14</visugpx:node>
            </visugpx:TrkExtension>
        </extensions>
      </trkpt>
      <trkpt lat="43.007" lon="-0.10127">
        <ele>458.9</ele>
        <time>2024-08-26T23:50:15.299Z</time>
      </trkpt>
      <trkpt lat="43.00708" lon="-0.10132">
        <ele>458.9</ele>
        <time>2024-08-26T23:50:18.261Z</time>
      </trkpt>
      <trkpt lat="43.00705" lon="-0.10145">
        <ele>460</ele>
        <time>2024-08-26T23:50:23.094Z</time>
      </trkpt>
      <trkpt lat="43.00697" lon="-0.10153">
        <ele>461.1</ele>
        <time>2024-08-26T23:50:27.909Z</time>
      </trkpt>
      <trkpt lat="43.0066" lon="-0.10163">
        <ele>462.5</ele>
        <time>2024-08-26T23:50:42.187Z</time>
      </trkpt>
      <trkpt lat="43.0062" lon="-0.10165">
        <ele>462.8</ele>
        <time>2024-08-26T23:50:55.984Z</time>
      </trkpt>
      <trkpt lat="43.00601" lon="-0.1017">
        <ele>463.8</ele>
        <time>2024-08-26T23:51:03.665Z</time>
      </trkpt>
      <trkpt lat="43.00591" lon="-0.10175">
        <ele>464.9</ele>
        <time>2024-08-26T23:51:08.700Z</time>
      </trkpt>
      <trkpt lat="43.00576" lon="-0.10186">
        <ele>466.6</ele>
        <time>2024-08-26T23:51:16.654Z</time>
      </trkpt>
      <trkpt lat="43.00556" lon="-0.10206">
        <ele>468.5</ele>
        <time>2024-08-26T23:51:27.344Z</time>
      </trkpt>
      <trkpt lat="43.00549" lon="-0.10217">
        <ele>470</ele>
        <time>2024-08-26T23:51:33.110Z</time>
      </trkpt>
      <trkpt lat="43.00532" lon="-0.10252">
        <ele>473.1</ele>
        <time>2024-08-26T23:51:47.519Z</time>
      </trkpt>
      <trkpt lat="43.00504" lon="-0.10296">
        <ele>475.3</ele>
        <time>2024-08-26T23:52:04.444Z</time>
      </trkpt>
      <trkpt lat="43.00494" lon="-0.10316">
        <ele>476.9</ele>
        <time>2024-08-26T23:52:12.453Z</time>
      </trkpt>
      <trkpt lat="43.0049" lon="-0.10334">
        <ele>479</ele>
        <time>2024-08-26T23:52:20.227Z</time>
      </trkpt>
      <trkpt lat="43.00484" lon="-0.10393">
        <ele>485.4</ele>
        <time>2024-08-26T23:52:44.328Z</time>
      </trkpt>
      <trkpt lat="43.00477" lon="-0.10412">
        <ele>487.1</ele>
        <time>2024-08-26T23:52:51.841Z</time>
      </trkpt>
      <trkpt lat="43.00459" lon="-0.10434">
        <ele>487.9</ele>
        <time>2024-08-26T23:53:00.864Z</time>
      </trkpt>
      <trkpt lat="43.00431" lon="-0.10463">
        <ele>489.1</ele>
        <time>2024-08-26T23:53:14.036Z</time>
      </trkpt>
      <trkpt lat="43.00416" lon="-0.10482">
        <ele>490.4</ele>
        <time>2024-08-26T23:53:22.478Z</time>
      </trkpt>
      <trkpt lat="43.00406" lon="-0.10498">
        <ele>493</ele>
        <time>2024-08-26T23:53:31.724Z</time>
      </trkpt>
      <trkpt lat="43.00376" lon="-0.10558">
        <ele>504.8</ele>
        <time>2024-08-26T23:54:10.987Z</time>
      </trkpt>
      <trkpt lat="43.00367" lon="-0.1057">
        <ele>506.5</ele>
        <time>2024-08-26T23:54:17.649Z</time>
      </trkpt>
      <trkpt lat="43.00348" lon="-0.10586">
        <ele>507.3</ele>
        <time>2024-08-26T23:54:26.063Z</time>
        <extensions>
          <visugpx:TrkExtension xmlns:visugpx="https://www.visugpx.com/editgpx/">
            <visugpx:node>15</visugpx:node>
            </visugpx:TrkExtension>
        </extensions>
      </trkpt>
      <trkpt lat="43.00335" lon="-0.10596">
        <ele>507</ele>
        <time>2024-08-26T23:54:30.788Z</time>
      </trkpt>
      <trkpt lat="43.00324" lon="-0.10607">
        <ele>507.4</ele>
        <time>2024-08-26T23:54:35.820Z</time>
      </trkpt>
      <trkpt lat="43.00326" lon="-0.10612">
        <ele>508.9</ele>
        <time>2024-08-26T23:54:41.255Z</time>
      </trkpt>
      <trkpt lat="43.00332" lon="-0.10618">
        <ele>511.5</ele>
        <time>2024-08-26T23:54:50.556Z</time>
      </trkpt>
      <trkpt lat="43.00335" lon="-0.10619">
        <ele>512.3</ele>
        <time>2024-08-26T23:54:53.208Z</time>
      </trkpt>
      <trkpt lat="43.00339" lon="-0.10618">
        <ele>512.8</ele>
        <time>2024-08-26T23:54:55.270Z</time>
      </trkpt>
      <trkpt lat="43.0036" lon="-0.10599">
        <ele>512.2</ele>
        <time>2024-08-26T23:55:03.159Z</time>
      </trkpt>
      <trkpt lat="43.00402" lon="-0.10583">
        <ele>515.3</ele>
        <time>2024-08-26T23:55:21.620Z</time>
      </trkpt>
      <trkpt lat="43.00417" lon="-0.10571">
        <ele>515</ele>
        <time>2024-08-26T23:55:27.173Z</time>
      </trkpt>
      <trkpt lat="43.00458" lon="-0.10529">
        <ele>512.3</ele>
        <time>2024-08-26T23:55:42.270Z</time>
      </trkpt>
      <trkpt lat="43.00471" lon="-0.1052">
        <ele>512.2</ele>
        <time>2024-08-26T23:55:47.075Z</time>
      </trkpt>
      <trkpt lat="43.00488" lon="-0.10517">
        <ele>514.3</ele>
        <time>2024-08-26T23:55:55.752Z</time>
      </trkpt>
      <trkpt lat="43.00555" lon="-0.10528">
        <ele>528</ele>
        <time>2024-08-26T23:56:41.987Z</time>
      </trkpt>
      <trkpt lat="43.00575" lon="-0.10525">
        <ele>531.5</ele>
        <time>2024-08-26T23:56:54.306Z</time>
      </trkpt>
      <trkpt lat="43.00585" lon="-0.10518">
        <ele>532</ele>
        <time>2024-08-26T23:56:58.662Z</time>
      </trkpt>
      <trkpt lat="43.00592" lon="-0.1051">
        <ele>531.8</ele>
        <time>2024-08-26T23:57:01.536Z</time>
      </trkpt>
      <trkpt lat="43.00608" lon="-0.10476">
        <ele>526.4</ele>
        <time>2024-08-26T23:57:10.249Z</time>
      </trkpt>
      <trkpt lat="43.00613" lon="-0.10472">
        <ele>526.3</ele>
        <time>2024-08-26T23:57:12.101Z</time>
      </trkpt>
      <trkpt lat="43.00621" lon="-0.1047">
        <ele>527.4</ele>
        <time>2024-08-26T23:57:16.412Z</time>
      </trkpt>
      <trkpt lat="43.00653" lon="-0.10472">
        <ele>535.5</ele>
        <time>2024-08-26T23:57:43.224Z</time>
      </trkpt>
      <trkpt lat="43.00671" lon="-0.10471">
        <ele>539.4</ele>
        <time>2024-08-26T23:57:56.242Z</time>
      </trkpt>
      <trkpt lat="43.00729" lon="-0.1046">
        <ele>544.1</ele>
        <time>2024-08-26T23:58:21.816Z</time>
      </trkpt>
      <trkpt lat="43.00745" lon="-0.10461">
        <ele>546.4</ele>
        <time>2024-08-26T23:58:30.569Z</time>
      </trkpt>
      <trkpt lat="43.00795" lon="-0.10469">
        <ele>552.4</ele>
        <time>2024-08-26T23:58:55.752Z</time>
      </trkpt>
      <trkpt lat="43.00836" lon="-0.10467">
        <ele>555</ele>
        <time>2024-08-26T23:59:12.679Z</time>
      </trkpt>
      <trkpt lat="43.00844" lon="-0.10468">
        <ele>555.6</ele>
        <time>2024-08-26T23:59:16.122Z</time>
      </trkpt>
      <trkpt lat="43.00856" lon="-0.10474">
        <ele>557</ele>
        <time>2024-08-26T23:59:22.299Z</time>
      </trkpt>
      <trkpt lat="43.00863" lon="-0.10482">
        <ele>558.1</ele>
        <time>2024-08-26T23:59:26.885Z</time>
      </trkpt>
      <trkpt lat="43.00868" lon="-0.10495">
        <ele>559.6</ele>
        <time>2024-08-26T23:59:32.671Z</time>
        <extensions>
          <visugpx:TrkExtension xmlns:visugpx="https://www.visugpx.com/editgpx/">
            <visugpx:node>16</visugpx:node>
            </visugpx:TrkExtension>
        </extensions>
      </trkpt>
      <trkpt lat="43.00887" lon="-0.1056">
        <ele>564.2</ele>
        <time>2024-08-26T23:59:55.774Z</time>
      </trkpt>
      <trkpt lat="43.0089" lon="-0.10576">
        <ele>564.7</ele>
        <time>2024-08-27T00:00:00.411Z</time>
      </trkpt>
      <trkpt lat="43.00889" lon="-0.1059">
        <ele>565.2</ele>
        <time>2024-08-27T00:00:04.453Z</time>
      </trkpt>
      <trkpt lat="43.00878" lon="-0.10638">
        <ele>566.4</ele>
        <time>2024-08-27T00:00:18.178Z</time>
      </trkpt>
      <trkpt lat="43.00877" lon="-0.10656">
        <ele>566.4</ele>
        <time>2024-08-27T00:00:22.624Z</time>
      </trkpt>
      <trkpt lat="43.00879" lon="-0.10678">
        <ele>567.2</ele>
        <time>2024-08-27T00:00:29.010Z</time>
      </trkpt>
      <trkpt lat="43.00895" lon="-0.10745">
        <ele>572.8</ele>
        <time>2024-08-27T00:00:53.847Z</time>
      </trkpt>
      <trkpt lat="43.00898" lon="-0.10756">
        <ele>574.9</ele>
        <time>2024-08-27T00:01:00.794Z</time>
      </trkpt>
      <trkpt lat="43.00903" lon="-0.10766">
        <ele>577</ele>
        <time>2024-08-27T00:01:07.747Z</time>
      </trkpt>
      <trkpt lat="43.00912" lon="-0.10775">
        <ele>578</ele>
        <time>2024-08-27T00:01:12.776Z</time>
      </trkpt>
      <trkpt lat="43.0092" lon="-0.10778">
        <ele>577.8</ele>
        <time>2024-08-27T00:01:15.373Z</time>
      </trkpt>
      <trkpt lat="43.00948" lon="-0.10773">
        <ele>575</ele>
        <time>2024-08-27T00:01:23.694Z</time>
      </trkpt>
      <trkpt lat="43.00968" lon="-0.10772">
        <ele>574.8</ele>
        <time>2024-08-27T00:01:30.232Z</time>
      </trkpt>
      <trkpt lat="43.00995" lon="-0.1078">
        <ele>576.6</ele>
        <time>2024-08-27T00:01:41.698Z</time>
      </trkpt>
      <trkpt lat="43.01016" lon="-0.10789">
        <ele>577.3</ele>
        <time>2024-08-27T00:01:49.889Z</time>
      </trkpt>
      <trkpt lat="43.011" lon="-0.1084">
        <ele>584</ele>
        <time>2024-08-27T00:02:29.040Z</time>
      </trkpt>
      <trkpt lat="43.01111" lon="-0.10845">
        <ele>584.5</ele>
        <time>2024-08-27T00:02:33.514Z</time>
      </trkpt>
      <trkpt lat="43.01135" lon="-0.10851">
        <ele>586.1</ele>
        <time>2024-08-27T00:02:43.655Z</time>
        <extensions>
          <visugpx:TrkExtension xmlns:visugpx="https://www.visugpx.com/editgpx/">
            <visugpx:node>17</visugpx:node>
            </visugpx:TrkExtension>
        </extensions>
      </trkpt>
      <trkpt lat="43.01142" lon="-0.10858">
        <ele>587.7</ele>
        <time>2024-08-27T00:02:49.184Z</time>
      </trkpt>
      <trkpt lat="43.01144" lon="-0.10865">
        <ele>589</ele>
        <time>2024-08-27T00:02:53.488Z</time>
      </trkpt>
      <trkpt lat="43.01143" lon="-0.10874">
        <ele>590.3</ele>
        <time>2024-08-27T00:02:57.913Z</time>
      </trkpt>
      <trkpt lat="43.01136" lon="-0.10885">
        <ele>591.5</ele>
        <time>2024-08-27T00:03:03.122Z</time>
      </trkpt>
      <trkpt lat="43.01127" lon="-0.10889">
        <ele>592.5</ele>
        <time>2024-08-27T00:03:07.635Z</time>
      </trkpt>
      <trkpt lat="43.01115" lon="-0.1089">
        <ele>593.1</ele>
        <time>2024-08-27T00:03:12.380Z</time>
      </trkpt>
      <trkpt lat="43.01089" lon="-0.10885">
        <ele>595.4</ele>
        <time>2024-08-27T00:03:24.138Z</time>
      </trkpt>
      <trkpt lat="43.01069" lon="-0.10879">
        <ele>596.9</ele>
        <time>2024-08-27T00:03:32.871Z</time>
      </trkpt>
      <trkpt lat="43.01039" lon="-0.10866">
        <ele>597.2</ele>
        <time>2024-08-27T00:03:43.787Z</time>
      </trkpt>
      <trkpt lat="43.0103" lon="-0.10869">
        <ele>598.5</ele>
        <time>2024-08-27T00:03:48.790Z</time>
      </trkpt>
      <trkpt lat="43.01025" lon="-0.10878">
        <ele>600.9</ele>
        <time>2024-08-27T00:03:56.870Z</time>
      </trkpt>
      <trkpt lat="43.01025" lon="-0.10893">
        <ele>604.1</ele>
        <time>2024-08-27T00:04:07.654Z</time>
      </trkpt>
      <trkpt lat="43.01035" lon="-0.10912">
        <ele>606.4</ele>
        <time>2024-08-27T00:04:16.699Z</time>
      </trkpt>
      <trkpt lat="43.01063" lon="-0.10949">
        <ele>608.7</ele>
        <time>2024-08-27T00:04:32.536Z</time>
      </trkpt>
      <trkpt lat="43.0109" lon="-0.10974">
        <ele>609.7</ele>
        <time>2024-08-27T00:04:44.627Z</time>
      </trkpt>
      <trkpt lat="43.011" lon="-0.1099">
        <ele>610.5</ele>
        <time>2024-08-27T00:04:50.742Z</time>
      </trkpt>
      <trkpt lat="43.01115" lon="-0.11035">
        <ele>613.5</ele>
        <time>2024-08-27T00:05:06.682Z</time>
      </trkpt>
      <trkpt lat="43.01126" lon="-0.11061">
        <ele>615.1</ele>
        <time>2024-08-27T00:05:16.037Z</time>
      </trkpt>
      <trkpt lat="43.01144" lon="-0.11121">
        <ele>616.7</ele>
        <time>2024-08-27T00:05:33.795Z</time>
      </trkpt>
      <trkpt lat="43.01148" lon="-0.11131">
        <ele>617.1</ele>
        <time>2024-08-27T00:05:37.064Z</time>
      </trkpt>
      <trkpt lat="43.01154" lon="-0.1114">
        <ele>617.5</ele>
        <time>2024-08-27T00:05:40.522Z</time>
      </trkpt>
      <trkpt lat="43.01131" lon="-0.11169">
        <ele>617.7</ele>
        <time>2024-08-27T00:05:51.268Z</time>
      </trkpt>
      <trkpt lat="43.01103" lon="-0.11177">
        <ele>620.2</ele>
        <time>2024-08-27T00:06:04.070Z</time>
      </trkpt>
      <trkpt lat="43.01077" lon="-0.11191">
        <ele>623.4</ele>
        <time>2024-08-27T00:06:17.817Z</time>
      </trkpt>
      <trkpt lat="43.01067" lon="-0.11193">
        <ele>624.2</ele>
        <time>2024-08-27T00:06:22.215Z</time>
        <extensions>
          <visugpx:TrkExtension xmlns:visugpx="https://www.visugpx.com/editgpx/">
            <visugpx:node>18</visugpx:node>
            </visugpx:TrkExtension>
        </extensions>
      </trkpt>
      <trkpt lat="43.01067" lon="-0.11207">
        <ele>624.4</ele>
        <time>2024-08-27T00:06:25.879Z</time>
      </trkpt>
      <trkpt lat="43.01072" lon="-0.11252">
        <ele>626.1</ele>
        <time>2024-08-27T00:06:39.064Z</time>
      </trkpt>
      <trkpt lat="43.01078" lon="-0.11281">
        <ele>627.5</ele>
        <time>2024-08-27T00:06:48.162Z</time>
      </trkpt>
      <trkpt lat="43.01085" lon="-0.11301">
        <ele>629.5</ele>
        <time>2024-08-27T00:06:56.394Z</time>
      </trkpt>
      <trkpt lat="43.01085" lon="-0.11342">
        <ele>631.1</ele>
        <time>2024-08-27T00:07:08.361Z</time>
      </trkpt>
      <trkpt lat="43.01089" lon="-0.11348">
        <ele>631.3</ele>
        <time>2024-08-27T00:07:10.584Z</time>
      </trkpt>
      <trkpt lat="43.01103" lon="-0.1136">
        <ele>632.4</ele>
        <time>2024-08-27T00:07:17.475Z</time>
      </trkpt>
      <trkpt lat="43.01128" lon="-0.1137">
        <ele>633.8</ele>
        <time>2024-08-27T00:07:27.885Z</time>
      </trkpt>
      <trkpt lat="43.01125" lon="-0.11373">
        <ele>633.7</ele>
        <time>2024-08-27T00:07:29.038Z</time>
      </trkpt>
      <trkpt lat="43.01122" lon="-0.11381">
        <ele>633.7</ele>
        <time>2024-08-27T00:07:31.253Z</time>
      </trkpt>
      <trkpt lat="43.01124" lon="-0.11394">
        <ele>634.4</ele>
        <time>2024-08-27T00:07:35.379Z</time>
        <extensions>
          <visugpx:TrkExtension xmlns:visugpx="https://www.visugpx.com/editgpx/">
            <visugpx:node>19</visugpx:node>
            </visugpx:TrkExtension>
        </extensions>
      </trkpt>
      <trkpt lat="43.0113" lon="-0.11404">
        <ele>635.6</ele>
        <time>2024-08-27T00:07:40.243Z</time>
      </trkpt>
      <trkpt lat="43.01152" lon="-0.11425">
        <ele>637.6</ele>
        <time>2024-08-27T00:07:51.735Z</time>
      </trkpt>
      <trkpt lat="43.0117" lon="-0.1145">
        <ele>637.8</ele>
        <time>2024-08-27T00:08:00.587Z</time>
      </trkpt>
      <trkpt lat="43.0119" lon="-0.11501">
        <ele>642.4</ele>
        <time>2024-08-27T00:08:20.982Z</time>
      </trkpt>
      <trkpt lat="43.01197" lon="-0.11507">
        <ele>642.9</ele>
        <time>2024-08-27T00:08:24.358Z</time>
      </trkpt>
      <trkpt lat="43.0121" lon="-0.11514">
        <ele>644.2</ele>
        <time>2024-08-27T00:08:30.734Z</time>
      </trkpt>
      <trkpt lat="43.01287" lon="-0.11533">
        <ele>647.1</ele>
        <time>2024-08-27T00:09:00.350Z</time>
      </trkpt>
      <trkpt lat="43.013" lon="-0.11539">
        <ele>648.1</ele>
        <time>2024-08-27T00:09:06.194Z</time>
      </trkpt>
      <trkpt lat="43.01313" lon="-0.11551">
        <ele>650.2</ele>
        <time>2024-08-27T00:09:14.467Z</time>
        <extensions>
          <visugpx:TrkExtension xmlns:visugpx="https://www.visugpx.com/editgpx/">
            <visugpx:node>20</visugpx:node>
            </visugpx:TrkExtension>
        </extensions>
      </trkpt>
      <trkpt lat="43.0135" lon="-0.11584">
        <ele>657</ele>
        <time>2024-08-27T00:09:39.550Z</time>
      </trkpt>
      <trkpt lat="43.01398" lon="-0.11621">
        <ele>661.3</ele>
        <time>2024-08-27T00:10:03.433Z</time>
      </trkpt>
      <trkpt lat="43.01421" lon="-0.11628">
        <ele>659.9</ele>
        <time>2024-08-27T00:10:10.377Z</time>
      </trkpt>
      <trkpt lat="43.01433" lon="-0.11634">
        <ele>660.5</ele>
        <time>2024-08-27T00:10:15.371Z</time>
      </trkpt>
      <trkpt lat="43.01497" lon="-0.11692">
        <ele>671.7</ele>
        <time>2024-08-27T00:10:57.684Z</time>
      </trkpt>
      <trkpt lat="43.01524" lon="-0.11722">
        <ele>675.4</ele>
        <time>2024-08-27T00:11:14.313Z</time>
      </trkpt>
      <trkpt lat="43.01557" lon="-0.11767">
        <ele>677.7</ele>
        <time>2024-08-27T00:11:32.670Z</time>
      </trkpt>
      <trkpt lat="43.01601" lon="-0.11844">
        <ele>678.1</ele>
        <time>2024-08-27T00:11:57.155Z</time>
      </trkpt>
      <trkpt lat="43.01607" lon="-0.11869">
        <ele>678.6</ele>
        <time>2024-08-27T00:12:04.183Z</time>
        <extensions>
          <visugpx:TrkExtension xmlns:visugpx="https://www.visugpx.com/editgpx/">
            <visugpx:node>21</visugpx:node>
            </visugpx:TrkExtension>
        </extensions>
      </trkpt>
      <trkpt lat="43.01624" lon="-0.1196">
        <ele>682</ele>
        <time>2024-08-27T00:12:31.250Z</time>
      </trkpt>
      <trkpt lat="43.01676" lon="-0.12155">
        <ele>693.6</ele>
        <time>2024-08-27T00:13:36.676Z</time>
      </trkpt>
      <trkpt lat="43.01685" lon="-0.12209">
        <ele>698.4</ele>
        <time>2024-08-27T00:13:56.886Z</time>
      </trkpt>
      <trkpt lat="43.01688" lon="-0.12238">
        <ele>701.2</ele>
        <time>2024-08-27T00:14:08.053Z</time>
      </trkpt>
      <trkpt lat="43.01688" lon="-0.12296">
        <ele>705.2</ele>
        <time>2024-08-27T00:14:27.490Z</time>
      </trkpt>
      <trkpt lat="43.01678" lon="-0.12471">
        <ele>720.3</ele>
        <time>2024-08-27T00:15:31.342Z</time>
        <extensions>
          <visugpx:TrkExtension xmlns:visugpx="https://www.visugpx.com/editgpx/">
            <visugpx:node>22</visugpx:node>
            </visugpx:TrkExtension>
        </extensions>
      </trkpt>
      <trkpt lat="43.01668" lon="-0.12631">
        <ele>738.8</ele>
        <time>2024-08-27T00:16:38.920Z</time>
      </trkpt>
      <trkpt lat="43.01666" lon="-0.12694">
        <ele>744.1</ele>
        <time>2024-08-27T00:17:01.638Z</time>
      </trkpt>
      <trkpt lat="43.01669" lon="-0.12769">
        <ele>744.4</ele>
        <time>2024-08-27T00:17:20.449Z</time>
      </trkpt>
      <trkpt lat="43.0168" lon="-0.12872">
        <ele>745.7</ele>
        <time>2024-08-27T00:17:47.481Z</time>
      </trkpt>
      <trkpt lat="43.01691" lon="-0.12941">
        <ele>749</ele>
        <time>2024-08-27T00:18:08.824Z</time>
      </trkpt>
      <trkpt lat="43.01701" lon="-0.1298">
        <ele>750.8</ele>
        <time>2024-08-27T00:18:21.135Z</time>
      </trkpt>
      <trkpt lat="43.01707" lon="-0.1302">
        <ele>755.7</ele>
        <time>2024-08-27T00:18:38.747Z</time>
      </trkpt>
      <trkpt lat="43.01716" lon="-0.13119">
        <ele>768.1</ele>
        <time>2024-08-27T00:19:22.741Z</time>
      </trkpt>
      <trkpt lat="43.01726" lon="-0.13198">
        <ele>774</ele>
        <time>2024-08-27T00:19:50.207Z</time>
      </trkpt>
      <trkpt lat="43.0173" lon="-0.13215">
        <ele>774.2</ele>
        <time>2024-08-27T00:19:54.819Z</time>
      </trkpt>
      <trkpt lat="43.01736" lon="-0.13229">
        <ele>773.9</ele>
        <time>2024-08-27T00:19:58.520Z</time>
      </trkpt>
      <trkpt lat="43.01767" lon="-0.13283">
        <ele>773.2</ele>
        <time>2024-08-27T00:20:14.722Z</time>
      </trkpt>
      <trkpt lat="43.01816" lon="-0.1339">
        <ele>778</ele>
        <time>2024-08-27T00:20:51.403Z</time>
      </trkpt>
      <trkpt lat="43.01872" lon="-0.13504">
        <ele>791.7</ele>
        <time>2024-08-27T00:21:44.860Z</time>
      </trkpt>
      <trkpt lat="43.01898" lon="-0.13537">
        <ele>794.8</ele>
        <time>2024-08-27T00:22:00.734Z</time>
        <extensions>
          <visugpx:TrkExtension xmlns:visugpx="https://www.visugpx.com/editgpx/">
            <visugpx:node>23</visugpx:node>
            </visugpx:TrkExtension>
        </extensions>
      </trkpt>
      <trkpt lat="43.01913" lon="-0.13555">
        <ele>796.6</ele>
        <time>2024-08-27T00:22:09.751Z</time>
      </trkpt>
      <trkpt lat="43.01928" lon="-0.13578">
        <ele>798.7</ele>
        <time>2024-08-27T00:22:20.039Z</time>
      </trkpt>
      <trkpt lat="43.01933" lon="-0.13592">
        <ele>800.3</ele>
        <time>2024-08-27T00:22:26.193Z</time>
      </trkpt>
      <trkpt lat="43.01936" lon="-0.1361">
        <ele>802.4</ele>
        <time>2024-08-27T00:22:33.905Z</time>
      </trkpt>
      <trkpt lat="43.01937" lon="-0.13624">
        <ele>803.3</ele>
        <time>2024-08-27T00:22:38.509Z</time>
      </trkpt>
      <trkpt lat="43.01935" lon="-0.13641">
        <ele>804.7</ele>
        <time>2024-08-27T00:22:44.631Z</time>
      </trkpt>
      <trkpt lat="43.01928" lon="-0.13663">
        <ele>805.4</ele>
        <time>2024-08-27T00:22:51.332Z</time>
      </trkpt>
      <trkpt lat="43.01919" lon="-0.13678">
        <ele>806.2</ele>
        <time>2024-08-27T00:22:57.051Z</time>
      </trkpt>
      <trkpt lat="43.01911" lon="-0.13687">
        <ele>807</ele>
        <time>2024-08-27T00:23:01.529Z</time>
      </trkpt>
      <trkpt lat="43.01888" lon="-0.13702">
        <ele>808</ele>
        <time>2024-08-27T00:23:11.242Z</time>
      </trkpt>
      <trkpt lat="43.01873" lon="-0.13707">
        <ele>808.6</ele>
        <time>2024-08-27T00:23:17.120Z</time>
      </trkpt>
      <trkpt lat="43.0186" lon="-0.13709">
        <ele>809.5</ele>
        <time>2024-08-27T00:23:22.616Z</time>
      </trkpt>
      <trkpt lat="43.01832" lon="-0.1371">
        <ele>811.3</ele>
        <time>2024-08-27T00:23:34.207Z</time>
      </trkpt>
      <trkpt lat="43.01815" lon="-0.13707">
        <ele>813.4</ele>
        <time>2024-08-27T00:23:42.884Z</time>
      </trkpt>
      <trkpt lat="43.01801" lon="-0.13699">
        <ele>816.4</ele>
        <time>2024-08-27T00:23:53.066Z</time>
      </trkpt>
      <trkpt lat="43.01768" lon="-0.13667">
        <ele>825</ele>
        <time>2024-08-27T00:24:21.849Z</time>
      </trkpt>
      <trkpt lat="43.01749" lon="-0.13654">
        <ele>828.4</ele>
        <time>2024-08-27T00:24:34.191Z</time>
      </trkpt>
      <trkpt lat="43.01735" lon="-0.1365">
        <ele>829.9</ele>
        <time>2024-08-27T00:24:40.992Z</time>
      </trkpt>
      <trkpt lat="43.01717" lon="-0.13655">
        <ele>830.7</ele>
        <time>2024-08-27T00:24:48.092Z</time>
      </trkpt>
      <trkpt lat="43.0171" lon="-0.13663">
        <ele>830.7</ele>
        <time>2024-08-27T00:24:51.164Z</time>
      </trkpt>
      <trkpt lat="43.01703" lon="-0.13677">
        <ele>830.2</ele>
        <time>2024-08-27T00:24:54.864Z</time>
      </trkpt>
      <trkpt lat="43.01684" lon="-0.13726">
        <ele>830.9</ele>
        <time>2024-08-27T00:25:09.276Z</time>
      </trkpt>
      <trkpt lat="43.01677" lon="-0.1377">
        <ele>832.6</ele>
        <time>2024-08-27T00:25:22.343Z</time>
      </trkpt>
      <trkpt lat="43.01668" lon="-0.13859">
        <ele>840.5</ele>
        <time>2024-08-27T00:25:55.331Z</time>
      </trkpt>
      <trkpt lat="43.01677" lon="-0.13955">
        <ele>842.2</ele>
        <time>2024-08-27T00:26:21.022Z</time>
      </trkpt>
      <trkpt lat="43.01672" lon="-0.14">
        <ele>845.5</ele>
        <time>2024-08-27T00:26:36.534Z</time>
      </trkpt>
      <trkpt lat="43.01654" lon="-0.14106">
        <ele>854</ele>
        <time>2024-08-27T00:27:14.630Z</time>
      </trkpt>
      <trkpt lat="43.01645" lon="-0.14147">
        <ele>857.7</ele>
        <time>2024-08-27T00:27:30.233Z</time>
        <extensions>
          <visugpx:TrkExtension xmlns:visugpx="https://www.visugpx.com/editgpx/">
            <visugpx:node>24</visugpx:node>
            </visugpx:TrkExtension>
        </extensions>
      </trkpt>
      <trkpt lat="43.01642" lon="-0.14175">
        <ele>859.1</ele>
        <time>2024-08-27T00:27:38.893Z</time>
      </trkpt>
      <trkpt lat="43.01642" lon="-0.14216">
        <ele>859.8</ele>
        <time>2024-08-27T00:27:49.754Z</time>
      </trkpt>
      <trkpt lat="43.01632" lon="-0.14289">
        <ele>863.1</ele>
        <time>2024-08-27T00:28:11.966Z</time>
      </trkpt>
      <trkpt lat="43.01622" lon="-0.14334">
        <ele>864.8</ele>
        <time>2024-08-27T00:28:25.516Z</time>
      </trkpt>
      <trkpt lat="43.01593" lon="-0.14441">
        <ele>866.9</ele>
        <time>2024-08-27T00:28:55.918Z</time>
      </trkpt>
      <trkpt lat="43.01583" lon="-0.14471">
        <ele>870</ele>
        <time>2024-08-27T00:29:08.392Z</time>
      </trkpt>
      <trkpt lat="43.01562" lon="-0.14556">
        <ele>876.4</ele>
        <time>2024-08-27T00:29:38.799Z</time>
      </trkpt>
      <trkpt lat="43.01552" lon="-0.14583">
        <ele>878.9</ele>
        <time>2024-08-27T00:29:49.627Z</time>
      </trkpt>
      <trkpt lat="43.01526" lon="-0.14643">
        <ele>882.3</ele>
        <time>2024-08-27T00:30:10.901Z</time>
      </trkpt>
      <trkpt lat="43.0151" lon="-0.14698">
        <ele>883.2</ele>
        <time>2024-08-27T00:30:26.455Z</time>
      </trkpt>
      <trkpt lat="43.01507" lon="-0.14724">
        <ele>883.7</ele>
        <time>2024-08-27T00:30:33.485Z</time>
      </trkpt>
      <trkpt lat="43.01507" lon="-0.14764">
        <ele>883.9</ele>
        <time>2024-08-27T00:30:43.546Z</time>
      </trkpt>
      <trkpt lat="43.01512" lon="-0.14796">
        <ele>883.9</ele>
        <time>2024-08-27T00:30:51.604Z</time>
      </trkpt>
      <trkpt lat="43.01511" lon="-0.14867">
        <ele>885.9</ele>
        <time>2024-08-27T00:31:11.350Z</time>
      </trkpt>
      <trkpt lat="43.01513" lon="-0.1492">
        <ele>885.1</ele>
        <time>2024-08-27T00:31:23.625Z</time>
      </trkpt>
      <trkpt lat="43.01523" lon="-0.1499">
        <ele>885.5</ele>
        <time>2024-08-27T00:31:41.611Z</time>
      </trkpt>
      <trkpt lat="43.01537" lon="-0.15029">
        <ele>888.4</ele>
        <time>2024-08-27T00:31:56.019Z</time>
      </trkpt>
      <trkpt lat="43.01543" lon="-0.15039">
        <ele>888.7</ele>
        <time>2024-08-27T00:31:59.538Z</time>
      </trkpt>
      <trkpt lat="43.01549" lon="-0.15055">
        <ele>889.4</ele>
        <time>2024-08-27T00:32:04.784Z</time>
      </trkpt>
      <trkpt lat="43.0156" lon="-0.15097">
        <ele>887.9</ele>
        <time>2024-08-27T00:32:14.397Z</time>
      </trkpt>
      <trkpt lat="43.0156" lon="-0.15125">
        <ele>886.7</ele>
        <time>2024-08-27T00:32:20.430Z</time>
      </trkpt>
      <trkpt lat="43.01553" lon="-0.15146">
        <ele>886.6</ele>
        <time>2024-08-27T00:32:26.011Z</time>
      </trkpt>
      <trkpt lat="43.01543" lon="-0.15159">
        <ele>887</ele>
        <time>2024-08-27T00:32:31.100Z</time>
        <extensions>
          <visugpx:TrkExtension xmlns:visugpx="https://www.visugpx.com/editgpx/">
            <visugpx:node>25</visugpx:node>
            </visugpx:TrkExtension>
        </extensions>
      </trkpt>
      <trkpt lat="43.01514" lon="-0.15196">
        <ele>888.9</ele>
        <time>2024-08-27T00:32:46.649Z</time>
      </trkpt>
      <trkpt lat="43.01485" lon="-0.15226">
        <ele>893.5</ele>
        <time>2024-08-27T00:33:05.323Z</time>
      </trkpt>
      <trkpt lat="43.01464" lon="-0.15253">
        <ele>897.3</ele>
        <time>2024-08-27T00:33:20.412Z</time>
      </trkpt>
      <trkpt lat="43.01431" lon="-0.15303">
        <ele>903.1</ele>
        <time>2024-08-27T00:33:44.925Z</time>
      </trkpt>
      <trkpt lat="43.01407" lon="-0.15334">
        <ele>905.7</ele>
        <time>2024-08-27T00:33:59.269Z</time>
      </trkpt>
      <trkpt lat="43.0139" lon="-0.15351">
        <ele>907.6</ele>
        <time>2024-08-27T00:34:08.786Z</time>
      </trkpt>
      <trkpt lat="43.01368" lon="-0.15364">
        <ele>909.9</ele>
        <time>2024-08-27T00:34:19.833Z</time>
      </trkpt>
      <trkpt lat="43.0135" lon="-0.15377">
        <ele>912</ele>
        <time>2024-08-27T00:34:29.455Z</time>
      </trkpt>
      <trkpt lat="43.01334" lon="-0.15408">
        <ele>913.2</ele>
        <time>2024-08-27T00:34:40.169Z</time>
      </trkpt>
      <trkpt lat="43.0133" lon="-0.15426">
        <ele>913.5</ele>
        <time>2024-08-27T00:34:45.129Z</time>
      </trkpt>
      <trkpt lat="43.0133" lon="-0.15446">
        <ele>913.5</ele>
        <time>2024-08-27T00:34:50.054Z</time>
      </trkpt>
      <trkpt lat="43.01338" lon="-0.15476">
        <ele>913.7</ele>
        <time>2024-08-27T00:34:58.129Z</time>
      </trkpt>
      <trkpt lat="43.01372" lon="-0.1554">
        <ele>913</ele>
        <time>2024-08-27T00:35:16.903Z</time>
      </trkpt>
      <trkpt lat="43.01386" lon="-0.15573">
        <ele>913</ele>
        <time>2024-08-27T00:35:26.299Z</time>
      </trkpt>
      <trkpt lat="43.01394" lon="-0.15599">
        <ele>913.3</ele>
        <time>2024-08-27T00:35:33.566Z</time>
      </trkpt>
      <trkpt lat="43.01417" lon="-0.15702">
        <ele>914.3</ele>
        <time>2024-08-27T00:36:01.153Z</time>
      </trkpt>
      <trkpt lat="43.0142" lon="-0.15721">
        <ele>915</ele>
        <time>2024-08-27T00:36:06.750Z</time>
      </trkpt>
      <trkpt lat="43.01419" lon="-0.15786">
        <ele>916.3</ele>
        <time>2024-08-27T00:36:24.192Z</time>
      </trkpt>
      <trkpt lat="43.01427" lon="-0.15876">
        <ele>919.5</ele>
        <time>2024-08-27T00:36:50.214Z</time>
      </trkpt>
      <trkpt lat="43.01449" lon="-0.15972">
        <ele>923.8</ele>
        <time>2024-08-27T00:37:20.073Z</time>
      </trkpt>
      <trkpt lat="43.01455" lon="-0.16018">
        <ele>924.6</ele>
        <time>2024-08-27T00:37:32.453Z</time>
      </trkpt>
      <trkpt lat="43.0146" lon="-0.16139">
        <ele>928.9</ele>
        <time>2024-08-27T00:38:07.266Z</time>
      </trkpt>
      <trkpt lat="43.01457" lon="-0.16179">
        <ele>930.3</ele>
        <time>2024-08-27T00:38:18.782Z</time>
      </trkpt>
      <trkpt lat="43.01453" lon="-0.16193">
        <ele>931</ele>
        <time>2024-08-27T00:38:23.322Z</time>
      </trkpt>
      <trkpt lat="43.01413" lon="-0.16265">
        <ele>936.4</ele>
        <time>2024-08-27T00:38:52.337Z</time>
      </trkpt>
      <trkpt lat="43.014" lon="-0.16278">
        <ele>937.8</ele>
        <time>2024-08-27T00:38:59.533Z</time>
      </trkpt>
      <trkpt lat="43.01382" lon="-0.16286">
        <ele>939.4</ele>
        <time>2024-08-27T00:39:07.921Z</time>
      </trkpt>
      <trkpt lat="43.01363" lon="-0.16285">
        <ele>941.5</ele>
        <time>2024-08-27T00:39:17.142Z</time>
        <extensions>
          <visugpx:TrkExtension xmlns:visugpx="https://www.visugpx.com/editgpx/">
            <visugpx:node>26</visugpx:node>
            </visugpx:TrkExtension>
        </extensions>
      </trkpt>
      <trkpt lat="43.01356" lon="-0.16283">
        <ele>942.2</ele>
        <time>2024-08-27T00:39:20.460Z</time>
      </trkpt>
      <trkpt lat="43.01322" lon="-0.1627">
        <ele>944.7</ele>
        <time>2024-08-27T00:39:35.394Z</time>
      </trkpt>
      <trkpt lat="43.01286" lon="-0.16251">
        <ele>946.4</ele>
        <time>2024-08-27T00:39:50.334Z</time>
      </trkpt>
      <trkpt lat="43.01241" lon="-0.16217">
        <ele>950.1</ele>
        <time>2024-08-27T00:40:12.166Z</time>
      </trkpt>
      <trkpt lat="43.01216" lon="-0.16195">
        <ele>952.7</ele>
        <time>2024-08-27T00:40:25.473Z</time>
      </trkpt>
      <trkpt lat="43.01185" lon="-0.16171">
        <ele>956.6</ele>
        <time>2024-08-27T00:40:42.689Z</time>
      </trkpt>
      <trkpt lat="43.01176" lon="-0.16161">
        <ele>957.5</ele>
        <time>2024-08-27T00:40:47.708Z</time>
      </trkpt>
      <trkpt lat="43.01143" lon="-0.16137">
        <ele>960.8</ele>
        <time>2024-08-27T00:41:04.487Z</time>
      </trkpt>
      <trkpt lat="43.0112" lon="-0.16131">
        <ele>962.8</ele>
        <time>2024-08-27T00:41:14.895Z</time>
      </trkpt>
      <trkpt lat="43.01106" lon="-0.16133">
        <ele>963.9</ele>
        <time>2024-08-27T00:41:20.998Z</time>
      </trkpt>
      <trkpt lat="43.01096" lon="-0.16138">
        <ele>964.7</ele>
        <time>2024-08-27T00:41:25.569Z</time>
      </trkpt>
      <trkpt lat="43.01043" lon="-0.16192">
        <ele>968.5</ele>
        <time>2024-08-27T00:41:52.311Z</time>
      </trkpt>
      <trkpt lat="43.0102" lon="-0.16222">
        <ele>970.7</ele>
        <time>2024-08-27T00:42:05.684Z</time>
      </trkpt>
      <trkpt lat="43.01003" lon="-0.16251">
        <ele>974.4</ele>
        <time>2024-08-27T00:42:20.137Z</time>
      </trkpt>
      <trkpt lat="43.00995" lon="-0.16282">
        <ele>976.3</ele>
        <time>2024-08-27T00:42:30.593Z</time>
      </trkpt>
      <trkpt lat="43.00991" lon="-0.16308">
        <ele>977.3</ele>
        <time>2024-08-27T00:42:38.299Z</time>
      </trkpt>
      <trkpt lat="43.00985" lon="-0.16383">
        <ele>978</ele>
        <time>2024-08-27T00:42:57.626Z</time>
      </trkpt>
      <trkpt lat="43.00986" lon="-0.16639">
        <ele>973</ele>
        <time>2024-08-27T00:43:55.776Z</time>
      </trkpt>
      <trkpt lat="43.00992" lon="-0.16681">
        <ele>971</ele>
        <time>2024-08-27T00:44:04.998Z</time>
      </trkpt>
      <trkpt lat="43.01004" lon="-0.16738">
        <ele>967.8</ele>
        <time>2024-08-27T00:44:17.780Z</time>
      </trkpt>
      <trkpt lat="43.01014" lon="-0.168">
        <ele>967.8</ele>
        <time>2024-08-27T00:44:33.416Z</time>
      </trkpt>
      <trkpt lat="43.01024" lon="-0.16843">
        <ele>967.5</ele>
        <time>2024-08-27T00:44:44.223Z</time>
      </trkpt>
      <trkpt lat="43.01044" lon="-0.16956">
        <ele>972.1</ele>
        <time>2024-08-27T00:45:18.240Z</time>
      </trkpt>
      <trkpt lat="43.01048" lon="-0.17015">
        <ele>970.5</ele>
        <time>2024-08-27T00:45:31.298Z</time>
      </trkpt>
      <trkpt lat="43.01055" lon="-0.17058">
        <ele>968.1</ele>
        <time>2024-08-27T00:45:40.791Z</time>
      </trkpt>
      <trkpt lat="43.01061" lon="-0.17131">
        <ele>964.9</ele>
        <time>2024-08-27T00:45:56.621Z</time>
      </trkpt>
      <trkpt lat="43.01067" lon="-0.17176">
        <ele>962.8</ele>
        <time>2024-08-27T00:46:06.478Z</time>
      </trkpt>
      <trkpt lat="43.01085" lon="-0.17267">
        <ele>961.3</ele>
        <time>2024-08-27T00:46:28.209Z</time>
      </trkpt>
      <trkpt lat="43.01088" lon="-0.17295">
        <ele>961.5</ele>
        <time>2024-08-27T00:46:35.390Z</time>
      </trkpt>
      <trkpt lat="43.01094" lon="-0.17513">
        <ele>970.4</ele>
        <time>2024-08-27T00:47:39.574Z</time>
        <extensions>
          <visugpx:TrkExtension xmlns:visugpx="https://www.visugpx.com/editgpx/">
            <visugpx:node>27</visugpx:node>
            </visugpx:TrkExtension>
        </extensions>
      </trkpt>
      <trkpt lat="43.01096" lon="-0.17677">
        <ele>975.1</ele>
        <time>2024-08-27T00:48:25.284Z</time>
      </trkpt>
      <trkpt lat="43.01092" lon="-0.17716">
        <ele>976.5</ele>
        <time>2024-08-27T00:48:36.600Z</time>
      </trkpt>
      <trkpt lat="43.01092" lon="-0.17793">
        <ele>976.5</ele>
        <time>2024-08-27T00:48:55.563Z</time>
      </trkpt>
      <trkpt lat="43.0109" lon="-0.17818">
        <ele>977.1</ele>
        <time>2024-08-27T00:49:02.425Z</time>
      </trkpt>
      <trkpt lat="43.01083" lon="-0.17866">
        <ele>979.1</ele>
        <time>2024-08-27T00:49:16.830Z</time>
      </trkpt>
      <trkpt lat="43.01077" lon="-0.17937">
        <ele>981.8</ele>
        <time>2024-08-27T00:49:37.574Z</time>
      </trkpt>
      <trkpt lat="43.0107" lon="-0.17984">
        <ele>982.9</ele>
        <time>2024-08-27T00:49:50.609Z</time>
      </trkpt>
      <trkpt lat="43.01069" lon="-0.18022">
        <ele>982.6</ele>
        <time>2024-08-27T00:49:59.669Z</time>
      </trkpt>
      <trkpt lat="43.01073" lon="-0.18046">
        <ele>981.9</ele>
        <time>2024-08-27T00:50:05.063Z</time>
      </trkpt>
      <trkpt lat="43.01073" lon="-0.18067">
        <ele>982.1</ele>
        <time>2024-08-27T00:50:10.448Z</time>
      </trkpt>
      <trkpt lat="43.01071" lon="-0.18082">
        <ele>982.7</ele>
        <time>2024-08-27T00:50:14.905Z</time>
      </trkpt>
      <trkpt lat="43.01047" lon="-0.18194">
        <ele>984.2</ele>
        <time>2024-08-27T00:50:45.263Z</time>
      </trkpt>
      <trkpt lat="43.0103" lon="-0.18249">
        <ele>985.7</ele>
        <time>2024-08-27T00:51:01.647Z</time>
      </trkpt>
      <trkpt lat="43.01008" lon="-0.18305">
        <ele>988.6</ele>
        <time>2024-08-27T00:51:20.763Z</time>
      </trkpt>
      <trkpt lat="43.00959" lon="-0.18462">
        <ele>1002.2</ele>
        <time>2024-08-27T00:52:20.978Z</time>
      </trkpt>
      <trkpt lat="43.00933" lon="-0.18503">
        <ele>1009</ele>
        <time>2024-08-27T00:52:45.037Z</time>
      </trkpt>
      <trkpt lat="43.00909" lon="-0.18537">
        <ele>1015</ele>
        <time>2024-08-27T00:53:06.169Z</time>
      </trkpt>
      <trkpt lat="43.0085" lon="-0.18603">
        <ele>1027.9</ele>
        <time>2024-08-27T00:53:52.011Z</time>
      </trkpt>
      <trkpt lat="43.00838" lon="-0.18619">
        <ele>1029.9</ele>
        <time>2024-08-27T00:54:00.399Z</time>
      </trkpt>
      <trkpt lat="43.00822" lon="-0.18651">
        <ele>1030.7</ele>
        <time>2024-08-27T00:54:10.829Z</time>
      </trkpt>
      <trkpt lat="43.00803" lon="-0.18701">
        <ele>1030.1</ele>
        <time>2024-08-27T00:54:24.103Z</time>
      </trkpt>
      <trkpt lat="43.00797" lon="-0.1874">
        <ele>1029.1</ele>
        <time>2024-08-27T00:54:32.954Z</time>
      </trkpt>
      <trkpt lat="43.00797" lon="-0.18787">
        <ele>1028.5</ele>
        <time>2024-08-27T00:54:43.930Z</time>
      </trkpt>
      <trkpt lat="43.00794" lon="-0.18802">
        <ele>1029.3</ele>
        <time>2024-08-27T00:54:48.733Z</time>
      </trkpt>
      <trkpt lat="43.00773" lon="-0.18869">
        <ele>1036.7</ele>
        <time>2024-08-27T00:55:17.360Z</time>
      </trkpt>
      <trkpt lat="43.00746" lon="-0.18926">
        <ele>1045.4</ele>
        <time>2024-08-27T00:55:47.910Z</time>
      </trkpt>
      <trkpt lat="43.00739" lon="-0.18947">
        <ele>1047.7</ele>
        <time>2024-08-27T00:55:56.889Z</time>
      </trkpt>
      <trkpt lat="43.00724" lon="-0.1902">
        <ele>1053</ele>
        <time>2024-08-27T00:56:22.416Z</time>
      </trkpt>
      <trkpt lat="43.00715" lon="-0.1905">
        <ele>1058.4</ele>
        <time>2024-08-27T00:56:40.338Z</time>
      </trkpt>
      <trkpt lat="43.00715" lon="-0.19066">
        <ele>1059.1</ele>
        <time>2024-08-27T00:56:45.109Z</time>
      </trkpt>
      <trkpt lat="43.00719" lon="-0.19089">
        <ele>1057.8</ele>
        <time>2024-08-27T00:56:50.204Z</time>
      </trkpt>
      <trkpt lat="43.00721" lon="-0.19116">
        <ele>1056.9</ele>
        <time>2024-08-27T00:56:56.052Z</time>
      </trkpt>
      <trkpt lat="43.00723" lon="-0.19162">
        <ele>1056.6</ele>
        <time>2024-08-27T00:57:07.097Z</time>
      </trkpt>
      <trkpt lat="43.00719" lon="-0.19223">
        <ele>1060.2</ele>
        <time>2024-08-27T00:57:26.665Z</time>
      </trkpt>
      <trkpt lat="43.0072" lon="-0.19266">
        <ele>1061.7</ele>
        <time>2024-08-27T00:57:38.990Z</time>
      </trkpt>
      <trkpt lat="43.00727" lon="-0.19295">
        <ele>1059.6</ele>
        <time>2024-08-27T00:57:45.571Z</time>
      </trkpt>
      <trkpt lat="43.00728" lon="-0.1933">
        <ele>1060.6</ele>
        <time>2024-08-27T00:57:55.329Z</time>
      </trkpt>
      <trkpt lat="43.00717" lon="-0.19425">
        <ele>1060.6</ele>
        <time>2024-08-27T00:58:19.017Z</time>
      </trkpt>
      <trkpt lat="43.00712" lon="-0.19441">
        <ele>1061</ele>
        <time>2024-08-27T00:58:23.747Z</time>
      </trkpt>
      <trkpt lat="43.007" lon="-0.19472">
        <ele>1062.2</ele>
        <time>2024-08-27T00:58:33.767Z</time>
      </trkpt>
      <trkpt lat="43.00686" lon="-0.19502">
        <ele>1062.1</ele>
        <time>2024-08-27T00:58:42.429Z</time>
      </trkpt>
      <trkpt lat="43.00652" lon="-0.19558">
        <ele>1058.7</ele>
        <time>2024-08-27T00:58:58.115Z</time>
      </trkpt>
      <trkpt lat="43.00643" lon="-0.1957">
        <ele>1058.6</ele>
        <time>2024-08-27T00:59:02.246Z</time>
      </trkpt>
      <trkpt lat="43.00612" lon="-0.19602">
        <ele>1058.4</ele>
        <time>2024-08-27T00:59:15.122Z</time>
      </trkpt>
      <trkpt lat="43.006" lon="-0.19612">
        <ele>1058.6</ele>
        <time>2024-08-27T00:59:20.069Z</time>
      </trkpt>
      <trkpt lat="43.0059" lon="-0.1962">
        <ele>1059.2</ele>
        <time>2024-08-27T00:59:24.670Z</time>
      </trkpt>
      <trkpt lat="43.00567" lon="-0.19628">
        <ele>1062.4</ele>
        <time>2024-08-27T00:59:37.231Z</time>
      </trkpt>
      <trkpt lat="43.00555" lon="-0.19636">
        <ele>1062.2</ele>
        <time>2024-08-27T00:59:41.526Z</time>
      </trkpt>
      <trkpt lat="43.00516" lon="-0.19657">
        <ele>1064.1</ele>
        <time>2024-08-27T00:59:57.822Z</time>
      </trkpt>
      <trkpt lat="43.00487" lon="-0.19667">
        <ele>1066.2</ele>
        <time>2024-08-27T01:00:10.448Z</time>
      </trkpt>
      <trkpt lat="43.00438" lon="-0.19678">
        <ele>1068.9</ele>
        <time>2024-08-27T01:00:30.334Z</time>
      </trkpt>
      <trkpt lat="43.00378" lon="-0.19696">
        <ele>1068.9</ele>
        <time>2024-08-27T01:00:51.022Z</time>
      </trkpt>
      <trkpt lat="43.00369" lon="-0.19704">
        <ele>1068.2</ele>
        <time>2024-08-27T01:00:54.186Z</time>
      </trkpt>
      <trkpt lat="43.00369" lon="-0.19708">
        <ele>1067.4</ele>
        <time>2024-08-27T01:00:55.048Z</time>
      </trkpt>
      <trkpt lat="43.00389" lon="-0.19707">
        <ele>1065.7</ele>
        <time>2024-08-27T01:01:00.946Z</time>
        <extensions>
          <visugpx:TrkExtension xmlns:visugpx="https://www.visugpx.com/editgpx/">
            <visugpx:node>28</visugpx:node>
            </visugpx:TrkExtension>
        </extensions>
      </trkpt>
      <trkpt lat="43.00369" lon="-0.19708">
        <ele>1067.4</ele>
        <time>2024-08-27T01:01:09.827Z</time>
      </trkpt>
      <trkpt lat="43.00367" lon="-0.19716">
        <ele>1065.9</ele>
        <time>2024-08-27T01:01:11.649Z</time>
      </trkpt>
      <trkpt lat="43.00368" lon="-0.19725">
        <ele>1065.4</ele>
        <time>2024-08-27T01:01:13.611Z</time>
      </trkpt>
      <trkpt lat="43.00377" lon="-0.19737">
        <ele>1068.3</ele>
        <time>2024-08-27T01:01:23.226Z</time>
      </trkpt>
      <trkpt lat="43.00406" lon="-0.19753">
        <ele>1070.6</ele>
        <time>2024-08-27T01:01:36.577Z</time>
      </trkpt>
      <trkpt lat="43.00487" lon="-0.19788">
        <ele>1073.7</ele>
        <time>2024-08-27T01:02:08.671Z</time>
      </trkpt>
      <trkpt lat="43.00556" lon="-0.1982">
        <ele>1073.1</ele>
        <time>2024-08-27T01:02:32.599Z</time>
      </trkpt>
      <trkpt lat="43.00572" lon="-0.19832">
        <ele>1072.5</ele>
        <time>2024-08-27T01:02:38.165Z</time>
      </trkpt>
      <trkpt lat="43.00576" lon="-0.19838">
        <ele>1073</ele>
        <time>2024-08-27T01:02:40.793Z</time>
      </trkpt>
      <trkpt lat="43.00582" lon="-0.19853">
        <ele>1074.7</ele>
        <time>2024-08-27T01:02:47.438Z</time>
      </trkpt>
      <trkpt lat="43.00584" lon="-0.19865">
        <ele>1076.5</ele>
        <time>2024-08-27T01:02:53.532Z</time>
      </trkpt>
      <trkpt lat="43.0059" lon="-0.19931">
        <ele>1083</ele>
        <time>2024-08-27T01:03:19.162Z</time>
      </trkpt>
      <trkpt lat="43.00586" lon="-0.19955">
        <ele>1085.4</ele>
        <time>2024-08-27T01:03:28.638Z</time>
      </trkpt>
      <trkpt lat="43.00586" lon="-0.19994">
        <ele>1084.7</ele>
        <time>2024-08-27T01:03:37.554Z</time>
      </trkpt>
      <trkpt lat="43.00582" lon="-0.20035">
        <ele>1085.8</ele>
        <time>2024-08-27T01:03:48.978Z</time>
      </trkpt>
      <trkpt lat="43.00582" lon="-0.20049">
        <ele>1085.8</ele>
        <time>2024-08-27T01:03:52.426Z</time>
      </trkpt>
      <trkpt lat="43.00588" lon="-0.20076">
        <ele>1083.7</ele>
        <time>2024-08-27T01:03:58.507Z</time>
      </trkpt>
      <trkpt lat="43.0059" lon="-0.20094">
        <ele>1084.3</ele>
        <time>2024-08-27T01:04:03.679Z</time>
      </trkpt>
      <trkpt lat="43.00592" lon="-0.20137">
        <ele>1087.5</ele>
        <time>2024-08-27T01:04:18.489Z</time>
      </trkpt>
      <trkpt lat="43.00591" lon="-0.20172">
        <ele>1089</ele>
        <time>2024-08-27T01:04:28.890Z</time>
      </trkpt>
      <trkpt lat="43.00576" lon="-0.20213">
        <ele>1094.2</ele>
        <time>2024-08-27T01:04:48.010Z</time>
      </trkpt>
      <trkpt lat="43.00562" lon="-0.20238">
        <ele>1098</ele>
        <time>2024-08-27T01:05:01.640Z</time>
      </trkpt>
      <trkpt lat="43.00548" lon="-0.20248">
        <ele>1102</ele>
        <time>2024-08-27T01:05:14.881Z</time>
      </trkpt>
      <trkpt lat="43.00515" lon="-0.20257">
        <ele>1111.9</ele>
        <time>2024-08-27T01:05:48.308Z</time>
      </trkpt>
      <trkpt lat="43.00507" lon="-0.20261">
        <ele>1114</ele>
        <time>2024-08-27T01:05:55.255Z</time>
      </trkpt>
      <trkpt lat="43.00507" lon="-0.20273">
        <ele>1113.8</ele>
        <time>2024-08-27T01:05:58.013Z</time>
      </trkpt>
      <trkpt lat="43.00528" lon="-0.20305">
        <ele>1106.9</ele>
        <time>2024-08-27T01:06:07.279Z</time>
      </trkpt>
      <trkpt lat="43.00531" lon="-0.20317">
        <ele>1106</ele>
        <time>2024-08-27T01:06:10.012Z</time>
      </trkpt>
      <trkpt lat="43.00529" lon="-0.20345">
        <ele>1106.6</ele>
        <time>2024-08-27T01:06:17.605Z</time>
      </trkpt>
      <trkpt lat="43.00521" lon="-0.20365">
        <ele>1108.8</ele>
        <time>2024-08-27T01:06:26.337Z</time>
      </trkpt>
      <trkpt lat="43.00508" lon="-0.20385">
        <ele>1113.3</ele>
        <time>2024-08-27T01:06:41.261Z</time>
      </trkpt>
      <trkpt lat="43.00502" lon="-0.20422">
        <ele>1113</ele>
        <time>2024-08-27T01:06:50.291Z</time>
      </trkpt>
      <trkpt lat="43.00494" lon="-0.20451">
        <ele>1115.3</ele>
        <time>2024-08-27T01:07:00.942Z</time>
      </trkpt>
      <trkpt lat="43.00478" lon="-0.20472">
        <ele>1119.9</ele>
        <time>2024-08-27T01:07:16.402Z</time>
      </trkpt>
      <trkpt lat="43.00448" lon="-0.20497">
        <ele>1125.4</ele>
        <time>2024-08-27T01:07:36.546Z</time>
      </trkpt>
      <trkpt lat="43.00429" lon="-0.20509">
        <ele>1130</ele>
        <time>2024-08-27T01:07:51.870Z</time>
      </trkpt>
      <trkpt lat="43.00408" lon="-0.20526">
        <ele>1135.5</ele>
        <time>2024-08-27T01:08:10.141Z</time>
      </trkpt>
      <trkpt lat="43.00405" lon="-0.2054">
        <ele>1136.7</ele>
        <time>2024-08-27T01:08:15.352Z</time>
      </trkpt>
      <trkpt lat="43.00406" lon="-0.20551">
        <ele>1136.7</ele>
        <time>2024-08-27T01:08:18.083Z</time>
      </trkpt>
      <trkpt lat="43.00422" lon="-0.20593">
        <ele>1131.9</ele>
        <time>2024-08-27T01:08:28.289Z</time>
      </trkpt>
      <trkpt lat="43.0042" lon="-0.20643">
        <ele>1134.5</ele>
        <time>2024-08-27T01:08:43.789Z</time>
      </trkpt>
      <trkpt lat="43.00412" lon="-0.20674">
        <ele>1139.7</ele>
        <time>2024-08-27T01:09:01.148Z</time>
      </trkpt>
      <trkpt lat="43.00408" lon="-0.20714">
        <ele>1141.4</ele>
        <time>2024-08-27T01:09:13.097Z</time>
      </trkpt>
      <trkpt lat="43.00398" lon="-0.20761">
        <ele>1142.3</ele>
        <time>2024-08-27T01:09:26.139Z</time>
      </trkpt>
      <trkpt lat="43.00381" lon="-0.20792">
        <ele>1146.7</ele>
        <time>2024-08-27T01:09:42.310Z</time>
      </trkpt>
      <trkpt lat="43.00352" lon="-0.2083">
        <ele>1158.7</ele>
        <time>2024-08-27T01:10:22.975Z</time>
      </trkpt>
      <trkpt lat="43.00346" lon="-0.20844">
        <ele>1162.8</ele>
        <time>2024-08-27T01:10:37.567Z</time>
      </trkpt>
      <trkpt lat="43.00347" lon="-0.20857">
        <ele>1163.7</ele>
        <time>2024-08-27T01:10:41.945Z</time>
      </trkpt>
      <trkpt lat="43.00351" lon="-0.20869">
        <ele>1163.9</ele>
        <time>2024-08-27T01:10:45.411Z</time>
      </trkpt>
      <trkpt lat="43.00376" lon="-0.209">
        <ele>1157.3</ele>
        <time>2024-08-27T01:10:55.356Z</time>
      </trkpt>
      <trkpt lat="43.00383" lon="-0.20911">
        <ele>1155.3</ele>
        <time>2024-08-27T01:10:58.499Z</time>
      </trkpt>
      <trkpt lat="43.00382" lon="-0.20925">
        <ele>1156.3</ele>
        <time>2024-08-27T01:11:03.261Z</time>
      </trkpt>
      <trkpt lat="43.0036" lon="-0.20986">
        <ele>1161.6</ele>
        <time>2024-08-27T01:11:27.054Z</time>
      </trkpt>
      <trkpt lat="43.00343" lon="-0.21012">
        <ele>1166.1</ele>
        <time>2024-08-27T01:11:42.818Z</time>
      </trkpt>
      <trkpt lat="43.00311" lon="-0.21049">
        <ele>1176.3</ele>
        <time>2024-08-27T01:12:16.565Z</time>
      </trkpt>
      <trkpt lat="43.00303" lon="-0.21102">
        <ele>1170.8</ele>
        <time>2024-08-27T01:12:28.228Z</time>
      </trkpt>
      <trkpt lat="43.00293" lon="-0.21136">
        <ele>1168.9</ele>
        <time>2024-08-27T01:12:36.126Z</time>
      </trkpt>
      <trkpt lat="43.00276" lon="-0.21186">
        <ele>1167.2</ele>
        <time>2024-08-27T01:12:48.094Z</time>
      </trkpt>
      <trkpt lat="43.00263" lon="-0.2121">
        <ele>1168</ele>
        <time>2024-08-27T01:12:56.350Z</time>
      </trkpt>
      <trkpt lat="43.00242" lon="-0.21234">
        <ele>1170.7</ele>
        <time>2024-08-27T01:13:09.084Z</time>
      </trkpt>
      <trkpt lat="43.00222" lon="-0.21252">
        <ele>1172.9</ele>
        <time>2024-08-27T01:13:19.967Z</time>
      </trkpt>
      <trkpt lat="43.00202" lon="-0.21263">
        <ele>1177.1</ele>
        <time>2024-08-27T01:13:34.271Z</time>
      </trkpt>
      <trkpt lat="43.00185" lon="-0.21266">
        <ele>1181.3</ele>
        <time>2024-08-27T01:13:48.166Z</time>
      </trkpt>
      <trkpt lat="43.00179" lon="-0.21269">
        <ele>1182.3</ele>
        <time>2024-08-27T01:13:51.829Z</time>
      </trkpt>
      <trkpt lat="43.00176" lon="-0.21274">
        <ele>1182.1</ele>
        <time>2024-08-27T01:13:53.232Z</time>
      </trkpt>
      <trkpt lat="43.00174" lon="-0.21291">
        <ele>1180.1</ele>
        <time>2024-08-27T01:13:56.943Z</time>
      </trkpt>
      <trkpt lat="43.00176" lon="-0.2131">
        <ele>1177.3</ele>
        <time>2024-08-27T01:14:01.080Z</time>
      </trkpt>
      <trkpt lat="43.00175" lon="-0.21368">
        <ele>1175.9</ele>
        <time>2024-08-27T01:14:14.016Z</time>
      </trkpt>
      <trkpt lat="43.00173" lon="-0.21387">
        <ele>1177.4</ele>
        <time>2024-08-27T01:14:20.738Z</time>
      </trkpt>
      <trkpt lat="43.00167" lon="-0.21416">
        <ele>1179</ele>
        <time>2024-08-27T01:14:30.118Z</time>
      </trkpt>
      <trkpt lat="43.00167" lon="-0.21428">
        <ele>1180.7</ele>
        <time>2024-08-27T01:14:35.916Z</time>
      </trkpt>
      <trkpt lat="43.00177" lon="-0.21452">
        <ele>1186.3</ele>
        <time>2024-08-27T01:14:54.612Z</time>
      </trkpt>
      <trkpt lat="43.00181" lon="-0.21454">
        <ele>1187.4</ele>
        <time>2024-08-27T01:14:58.257Z</time>
        <extensions>
          <visugpx:TrkExtension xmlns:visugpx="https://www.visugpx.com/editgpx/">
            <visugpx:node>29</visugpx:node>
            </visugpx:TrkExtension>
        </extensions>
      </trkpt>
      <trkpt lat="43.00185" lon="-0.21456">
        <ele>1188.7</ele>
        <time>2024-08-27T01:15:02.687Z</time>
      </trkpt>
      <trkpt lat="43.00193" lon="-0.21456">
        <ele>1190.1</ele>
        <time>2024-08-27T01:15:07.605Z</time>
      </trkpt>
      <trkpt lat="43.00198" lon="-0.21453">
        <ele>1190.5</ele>
        <time>2024-08-27T01:15:09.934Z</time>
      </trkpt>
      <trkpt lat="43.00211" lon="-0.21436">
        <ele>1189.1</ele>
        <time>2024-08-27T01:15:15.235Z</time>
      </trkpt>
      <trkpt lat="43.00226" lon="-0.2142">
        <ele>1187.3</ele>
        <time>2024-08-27T01:15:20.841Z</time>
      </trkpt>
      <trkpt lat="43.00235" lon="-0.21414">
        <ele>1187.8</ele>
        <time>2024-08-27T01:15:24.793Z</time>
      </trkpt>
      <trkpt lat="43.00262" lon="-0.21402">
        <ele>1191.8</ele>
        <time>2024-08-27T01:15:40.155Z</time>
      </trkpt>
      <trkpt lat="43.00301" lon="-0.21374">
        <ele>1192.4</ele>
        <time>2024-08-27T01:15:55.631Z</time>
      </trkpt>
      <trkpt lat="43.00314" lon="-0.21368">
        <ele>1193.1</ele>
        <time>2024-08-27T01:16:01.066Z</time>
      </trkpt>
      <trkpt lat="43.00342" lon="-0.21361">
        <ele>1197.8</ele>
        <time>2024-08-27T01:16:17.920Z</time>
      </trkpt>
      <trkpt lat="43.00355" lon="-0.21356">
        <ele>1200.2</ele>
        <time>2024-08-27T01:16:26.308Z</time>
      </trkpt>
      <trkpt lat="43.00369" lon="-0.21346">
        <ele>1202.2</ele>
        <time>2024-08-27T01:16:34.423Z</time>
      </trkpt>
      <trkpt lat="43.00405" lon="-0.21306">
        <ele>1201.7</ele>
        <time>2024-08-27T01:16:49.539Z</time>
      </trkpt>
      <trkpt lat="43.00431" lon="-0.21291">
        <ele>1208.5</ele>
        <time>2024-08-27T01:17:12.041Z</time>
      </trkpt>
      <trkpt lat="43.00467" lon="-0.21257">
        <ele>1213.9</ele>
        <time>2024-08-27T01:17:34.262Z</time>
      </trkpt>
      <trkpt lat="43.00503" lon="-0.21227">
        <ele>1218.2</ele>
        <time>2024-08-27T01:17:54.108Z</time>
      </trkpt>
      <trkpt lat="43.00532" lon="-0.21209">
        <ele>1223.6</ele>
        <time>2024-08-27T01:18:13.284Z</time>
      </trkpt>
      <trkpt lat="43.00568" lon="-0.21182">
        <ele>1229.3</ele>
        <time>2024-08-27T01:18:35.334Z</time>
      </trkpt>
      <trkpt lat="43.00599" lon="-0.21141">
        <ele>1229.9</ele>
        <time>2024-08-27T01:18:50.501Z</time>
      </trkpt>
      <trkpt lat="43.0064" lon="-0.21109">
        <ele>1237.7</ele>
        <time>2024-08-27T01:19:18.465Z</time>
      </trkpt>
      <trkpt lat="43.0068" lon="-0.21069">
        <ele>1236.6</ele>
        <time>2024-08-27T01:19:34.067Z</time>
      </trkpt>
      <trkpt lat="43.0069" lon="-0.21064">
        <ele>1238.3</ele>
        <time>2024-08-27T01:19:40.243Z</time>
      </trkpt>
      <trkpt lat="43.00713" lon="-0.21059">
        <ele>1245.6</ele>
        <time>2024-08-27T01:20:05.314Z</time>
      </trkpt>
      <trkpt lat="43.00721" lon="-0.21055">
        <ele>1247.3</ele>
        <time>2024-08-27T01:20:11.071Z</time>
      </trkpt>
      <trkpt lat="43.00733" lon="-0.21039">
        <ele>1247.1</ele>
        <time>2024-08-27T01:20:16.514Z</time>
        <extensions>
          <visugpx:TrkExtension xmlns:visugpx="https://www.visugpx.com/editgpx/">
            <visugpx:node>30</visugpx:node>
            </visugpx:TrkExtension>
        </extensions>
      </trkpt>
      <trkpt lat="43.00747" lon="-0.21016">
        <ele>1245.9</ele>
        <time>2024-08-27T01:20:22.963Z</time>
      </trkpt>
      <trkpt lat="43.00753" lon="-0.21003">
        <ele>1243.6</ele>
        <time>2024-08-27T01:20:26.276Z</time>
      </trkpt>
      <trkpt lat="43.00762" lon="-0.20992">
        <ele>1241.7</ele>
        <time>2024-08-27T01:20:29.833Z</time>
      </trkpt>
      <trkpt lat="43.00769" lon="-0.20987">
        <ele>1241.4</ele>
        <time>2024-08-27T01:20:32.206Z</time>
      </trkpt>
      <trkpt lat="43.00779" lon="-0.20988">
        <ele>1243.9</ele>
        <time>2024-08-27T01:20:40.478Z</time>
      </trkpt>
      <trkpt lat="43.00786" lon="-0.20994">
        <ele>1246.9</ele>
        <time>2024-08-27T01:20:51.391Z</time>
      </trkpt>
      <trkpt lat="43.00805" lon="-0.21005">
        <ele>1252.6</ele>
        <time>2024-08-27T01:21:10.412Z</time>
      </trkpt>
      <trkpt lat="43.00817" lon="-0.21007">
        <ele>1253.8</ele>
        <time>2024-08-27T01:21:16.048Z</time>
      </trkpt>
      <trkpt lat="43.00838" lon="-0.21007">
        <ele>1254.1</ele>
        <time>2024-08-27T01:21:23.442Z</time>
      </trkpt>
      <trkpt lat="43.00844" lon="-0.21009">
        <ele>1254.1</ele>
        <time>2024-08-27T01:21:25.522Z</time>
      </trkpt>
      <trkpt lat="43.00848" lon="-0.21013">
        <ele>1254.5</ele>
        <time>2024-08-27T01:21:27.690Z</time>
      </trkpt>
      <trkpt lat="43.00854" lon="-0.21022">
        <ele>1255.7</ele>
        <time>2024-08-27T01:21:32.402Z</time>
      </trkpt>
      <trkpt lat="43.00861" lon="-0.21046">
        <ele>1258.6</ele>
        <time>2024-08-27T01:21:43.112Z</time>
      </trkpt>
      <trkpt lat="43.00869" lon="-0.21088">
        <ele>1261.9</ele>
        <time>2024-08-27T01:21:58.157Z</time>
      </trkpt>
      <trkpt lat="43.00875" lon="-0.21124">
        <ele>1263.6</ele>
        <time>2024-08-27T01:22:09.282Z</time>
      </trkpt>
      <trkpt lat="43.00877" lon="-0.21168">
        <ele>1269.4</ele>
        <time>2024-08-27T01:22:29.475Z</time>
      </trkpt>
      <trkpt lat="43.00881" lon="-0.21191">
        <ele>1271.4</ele>
        <time>2024-08-27T01:22:38.016Z</time>
      </trkpt>
      <trkpt lat="43.00897" lon="-0.21234">
        <ele>1270.8</ele>
        <time>2024-08-27T01:22:49.298Z</time>
      </trkpt>
      <trkpt lat="43.00903" lon="-0.21261">
        <ele>1271.5</ele>
        <time>2024-08-27T01:22:57.030Z</time>
      </trkpt>
      <trkpt lat="43.00907" lon="-0.21288">
        <ele>1274.1</ele>
        <time>2024-08-27T01:23:07.471Z</time>
      </trkpt>
      <trkpt lat="43.00908" lon="-0.2136">
        <ele>1289.9</ele>
        <time>2024-08-27T01:24:01.071Z</time>
      </trkpt>
      <trkpt lat="43.00913" lon="-0.21389">
        <ele>1293.1</ele>
        <time>2024-08-27T01:24:13.123Z</time>
      </trkpt>
      <trkpt lat="43.00922" lon="-0.21422">
        <ele>1296.3</ele>
        <time>2024-08-27T01:24:26.242Z</time>
      </trkpt>
      <trkpt lat="43.00933" lon="-0.21474">
        <ele>1302.3</ele>
        <time>2024-08-27T01:24:48.522Z</time>
      </trkpt>
      <trkpt lat="43.00935" lon="-0.21478">
        <ele>1302.5</ele>
        <time>2024-08-27T01:24:49.951Z</time>
      </trkpt>
      <trkpt lat="43.00941" lon="-0.21479">
        <ele>1301.6</ele>
        <time>2024-08-27T01:24:51.732Z</time>
      </trkpt>
      <trkpt lat="43.00963" lon="-0.21476">
        <ele>1297.3</ele>
        <time>2024-08-27T01:24:58.248Z</time>
      </trkpt>
      <trkpt lat="43.00971" lon="-0.21481">
        <ele>1296.8</ele>
        <time>2024-08-27T01:25:00.840Z</time>
      </trkpt>
      <trkpt lat="43.00979" lon="-0.21492">
        <ele>1297.8</ele>
        <time>2024-08-27T01:25:05.930Z</time>
      </trkpt>
      <trkpt lat="43.00984" lon="-0.21506">
        <ele>1299.8</ele>
        <time>2024-08-27T01:25:12.948Z</time>
      </trkpt>
      <trkpt lat="43.01014" lon="-0.21539">
        <ele>1302.4</ele>
        <time>2024-08-27T01:25:29.056Z</time>
      </trkpt>
      <trkpt lat="43.01043" lon="-0.21581">
        <ele>1309.3</ele>
        <time>2024-08-27T01:25:53.901Z</time>
      </trkpt>
      <trkpt lat="43.01094" lon="-0.21635">
        <ele>1323.2</ele>
        <time>2024-08-27T01:26:40.327Z</time>
      </trkpt>
      <trkpt lat="43.01125" lon="-0.21631">
        <ele>1326.5</ele>
        <time>2024-08-27T01:26:55.192Z</time>
      </trkpt>
      <trkpt lat="43.01143" lon="-0.21627">
        <ele>1329</ele>
        <time>2024-08-27T01:27:04.923Z</time>
      </trkpt>
      <trkpt lat="43.01151" lon="-0.21623">
        <ele>1329.8</ele>
        <time>2024-08-27T01:27:08.822Z</time>
        <extensions>
          <visugpx:TrkExtension xmlns:visugpx="https://www.visugpx.com/editgpx/">
            <visugpx:node>31</visugpx:node>
            </visugpx:TrkExtension>
        </extensions>
      </trkpt>
      <trkpt lat="43.01168" lon="-0.21615">
        <ele>1331.5</ele>
        <time>2024-08-27T01:27:17.069Z</time>
      </trkpt>
      <trkpt lat="43.01175" lon="-0.21615">
        <ele>1333.6</ele>
        <time>2024-08-27T01:27:24.193Z</time>
      </trkpt>
      <trkpt lat="43.01179" lon="-0.21622">
        <ele>1336.9</ele>
        <time>2024-08-27T01:27:35.679Z</time>
      </trkpt>
      <trkpt lat="43.01177" lon="-0.21636">
        <ele>1340.5</ele>
        <time>2024-08-27T01:27:48.485Z</time>
      </trkpt>
      <trkpt lat="43.01175" lon="-0.21639">
        <ele>1340.7</ele>
        <time>2024-08-27T01:27:49.726Z</time>
      </trkpt>
      <trkpt lat="43.01158" lon="-0.21652">
        <ele>1339.4</ele>
        <time>2024-08-27T01:27:55.466Z</time>
      </trkpt>
      <trkpt lat="43.0114" lon="-0.21672">
        <ele>1339.5</ele>
        <time>2024-08-27T01:28:03.382Z</time>
      </trkpt>
      <trkpt lat="43.01134" lon="-0.21683">
        <ele>1340.6</ele>
        <time>2024-08-27T01:28:08.234Z</time>
      </trkpt>
      <trkpt lat="43.01099" lon="-0.2173">
        <ele>1347.6</ele>
        <time>2024-08-27T01:28:34.954Z</time>
      </trkpt>
      <trkpt lat="43.01091" lon="-0.21734">
        <ele>1348.6</ele>
        <time>2024-08-27T01:28:39.188Z</time>
      </trkpt>
      <trkpt lat="43.01071" lon="-0.21732">
        <ele>1348.7</ele>
        <time>2024-08-27T01:28:46.046Z</time>
      </trkpt>
      <trkpt lat="43.01029" lon="-0.21716">
        <ele>1348.1</ele>
        <time>2024-08-27T01:29:00.126Z</time>
      </trkpt>
      <trkpt lat="43.01013" lon="-0.21708">
        <ele>1347.5</ele>
        <time>2024-08-27T01:29:05.286Z</time>
      </trkpt>
      <trkpt lat="43.00981" lon="-0.21687">
        <ele>1344.9</ele>
        <time>2024-08-27T01:29:15.746Z</time>
      </trkpt>
      <trkpt lat="43.0097" lon="-0.21684">
        <ele>1345.3</ele>
        <time>2024-08-27T01:29:19.973Z</time>
      </trkpt>
      <trkpt lat="43.00962" lon="-0.21686">
        <ele>1347</ele>
        <time>2024-08-27T01:29:25.678Z</time>
      </trkpt>
      <trkpt lat="43.00958" lon="-0.2169">
        <ele>1348.8</ele>
        <time>2024-08-27T01:29:32.227Z</time>
      </trkpt>
      <trkpt lat="43.00955" lon="-0.21698">
        <ele>1351.6</ele>
        <time>2024-08-27T01:29:43.203Z</time>
      </trkpt>
      <trkpt lat="43.00955" lon="-0.21708">
        <ele>1354.6</ele>
        <time>2024-08-27T01:29:54.769Z</time>
        <extensions>
          <visugpx:TrkExtension xmlns:visugpx="https://www.visugpx.com/editgpx/">
            <visugpx:node>32</visugpx:node>
            </visugpx:TrkExtension>
        </extensions>
      </trkpt>
      <trkpt lat="43.00961" lon="-0.21722">
        <ele>1358.1</ele>
        <time>2024-08-27T01:30:06.594Z</time>
      </trkpt>
      <trkpt lat="43.00977" lon="-0.21733">
        <ele>1359.8</ele>
        <time>2024-08-27T01:30:14.819Z</time>
      </trkpt>
      <trkpt lat="43.01007" lon="-0.21769">
        <ele>1366.5</ele>
        <time>2024-08-27T01:30:38.699Z</time>
      </trkpt>
      <trkpt lat="43.01032" lon="-0.21794">
        <ele>1370.1</ele>
        <time>2024-08-27T01:30:54.029Z</time>
      </trkpt>
      <trkpt lat="43.01058" lon="-0.21815">
        <ele>1372.1</ele>
        <time>2024-08-27T01:31:06.608Z</time>
      </trkpt>
      <trkpt lat="43.01075" lon="-0.21825">
        <ele>1372.8</ele>
        <time>2024-08-27T01:31:13.630Z</time>
      </trkpt>
      <trkpt lat="43.01119" lon="-0.21841">
        <ele>1373.6</ele>
        <time>2024-08-27T01:31:29.826Z</time>
      </trkpt>
      <trkpt lat="43.01125" lon="-0.21845">
        <ele>1374.3</ele>
        <time>2024-08-27T01:31:33.000Z</time>
        <extensions>
          <visugpx:TrkExtension xmlns:visugpx="https://www.visugpx.com/editgpx/">
            <visugpx:node>33</visugpx:node>
            </visugpx:TrkExtension>
        </extensions>
      </trkpt>
    </trkseg>
  </trk>
</gpx>